Time,TemperatureF,DewpointF,PressureIn,WindDirection,WindDirectionDegrees,WindSpeedMPH,WindSpeedGustMPH,Humidity,HourlyPrecipIn,Conditions,Clouds,dailyrainin,SoftwareType,DateUTC
2013-05-17 00:00:00,68.4,62.3,29.98,WSW,238,0.0,0.0,81,0.00,,,0.00,Wunderground v.1.15,2013-05-17 04:00:00,
2013-05-17 00:01:00,68.3,62.2,29.98,WSW,238,0.0,0.0,81,0.00,,,0.00,Wunderground v.1.15,2013-05-17 04:01:00,
2013-05-17 00:02:00,68.3,62.2,29.98,SW,235,0.0,0.0,81,0.00,,,0.00,Wunderground v.1.15,2013-05-17 04:02:00,
2013-05-17 00:03:00,68.2,62.5,29.98,SW,235,0.0,0.0,82,0.00,,,0.00,Wunderground v.1.15,2013-05-17 04:03:00,
2013-05-17 00:06:00,68.0,62.3,29.98,West,260,0.0,1.0,82,0.00,,,0.00,Wunderground v.1.15,2013-05-17 04:06:00,
2013-05-17 00:07:00,68.0,62.3,29.98,West,259,0.0,1.0,82,0.00,,,0.00,Wunderground v.1.15,2013-05-17 04:07:00,
2013-05-17 00:08:00,67.9,62.2,29.98,SW,228,2.0,2.0,82,0.00,,,0.00,Wunderground v.1.15,2013-05-17 04:08:00,
2013-05-17 00:09:00,67.9,62.2,29.98,SW,229,2.0,2.0,82,0.00,,,0.00,Wunderground v.1.15,2013-05-17 04:09:00,
2013-05-17 00:11:00,67.9,62.5,29.98,SW,233,1.0,2.0,83,0.00,,,0.00,Wunderground v.1.15,2013-05-17 04:11:00,
2013-05-17 00:13:00,67.8,62.4,29.98,SW,228,1.0,2.0,83,0.00,,,0.00,Wunderground v.1.15,2013-05-17 04:13:00,
2013-05-17 00:16:00,67.6,62.3,29.98,SW,232,1.0,2.0,83,0.00,,,0.00,Wunderground v.1.15,2013-05-17 04:16:00,
2013-05-17 00:17:00,67.6,62.3,29.98,SW,233,1.0,2.0,83,0.00,,,0.00,Wunderground v.1.15,2013-05-17 04:17:00,
2013-05-17 00:19:00,67.5,62.2,29.98,SW,232,1.0,2.0,83,0.00,,,0.00,Wunderground v.1.15,2013-05-17 04:19:00,
2013-05-17 00:22:00,67.4,62.1,29.98,SW,233,0.0,1.0,83,0.00,,,0.00,Wunderground v.1.15,2013-05-17 04:22:00,
2013-05-17 00:23:00,67.3,62.3,29.98,SW,233,0.0,1.0,84,0.00,,,0.00,Wunderground v.1.15,2013-05-17 04:23:00,
2013-05-17 00:24:00,67.2,62.2,29.98,SW,233,0.0,1.0,84,0.00,,,0.00,Wunderground v.1.15,2013-05-17 04:24:00,
2013-05-17 00:25:00,67.1,62.1,29.98,SW,232,0.0,1.0,84,0.00,,,0.00,Wunderground v.1.15,2013-05-17 04:25:00,
2013-05-17 00:29:00,66.7,62.0,29.98,SW,233,0.0,1.0,85,0.00,,,0.00,Wunderground v.1.15,2013-05-17 04:29:00,
2013-05-17 00:30:00,66.6,61.9,29.98,SW,232,0.0,0.0,85,0.00,,,0.00,Wunderground v.1.15,2013-05-17 04:30:00,
2013-05-17 00:31:00,66.5,61.8,29.98,SW,233,0.0,0.0,85,0.00,,,0.00,Wunderground v.1.15,2013-05-17 04:31:00,
2013-05-17 00:33:00,66.4,61.8,29.98,SW,233,0.0,0.0,85,0.00,,,0.00,Wunderground v.1.15,2013-05-17 04:33:00,
2013-05-17 00:34:00,66.4,62.1,29.98,SW,233,0.0,0.0,86,0.00,,,0.00,Wunderground v.1.15,2013-05-17 04:34:00,
2013-05-17 00:36:00,66.3,62.0,29.98,WSW,257,1.0,1.0,86,0.00,,,0.00,Wunderground v.1.15,2013-05-17 04:36:00,
2013-05-17 00:37:00,66.3,62.0,29.98,WSW,253,1.0,1.0,86,0.00,,,0.00,Wunderground v.1.15,2013-05-17 04:37:00,
2013-05-17 00:39:00,66.3,62.0,29.98,SW,221,1.0,1.0,86,0.00,,,0.00,Wunderground v.1.15,2013-05-17 04:39:00,
2013-05-17 00:41:00,66.3,62.0,29.98,SW,226,1.0,1.0,86,0.00,,,0.00,Wunderground v.1.15,2013-05-17 04:41:00,
2013-05-17 00:42:00,66.3,62.0,29.98,SW,226,1.0,1.0,86,0.00,,,0.00,Wunderground v.1.15,2013-05-17 04:42:00,
2013-05-17 00:43:00,66.3,62.0,29.98,SW,229,1.0,1.0,86,0.00,,,0.00,Wunderground v.1.15,2013-05-17 04:43:00,
2013-05-17 00:47:00,66.4,62.1,29.98,SW,226,1.0,1.0,86,0.00,,,0.00,Wunderground v.1.15,2013-05-17 04:47:00,
2013-05-17 00:48:00,66.4,62.1,29.98,SW,225,1.0,1.0,86,0.00,,,0.00,Wunderground v.1.15,2013-05-17 04:48:00,
2013-05-17 00:49:00,66.4,62.1,29.98,SW,233,1.0,1.0,86,0.00,,,0.00,Wunderground v.1.15,2013-05-17 04:49:00,
2013-05-17 00:50:00,66.4,62.1,29.98,SW,232,1.0,1.0,86,0.00,,,0.00,Wunderground v.1.15,2013-05-17 04:50:00,
2013-05-17 00:51:00,66.5,62.2,29.98,SW,232,1.0,1.0,86,0.00,,,0.00,Wunderground v.1.15,2013-05-17 04:51:00,
2013-05-17 00:54:00,66.7,62.0,29.98,SW,235,1.0,2.0,85,0.00,,,0.00,Wunderground v.1.15,2013-05-17 04:54:00,
2013-05-17 00:56:00,66.8,62.1,29.98,SW,221,2.0,2.0,85,0.00,,,0.00,Wunderground v.1.15,2013-05-17 04:56:00,
2013-05-17 00:59:00,66.9,62.2,29.98,WSW,245,2.0,3.0,85,0.00,,,0.00,Wunderground v.1.15,2013-05-17 04:59:00,
2013-05-17 01:00:00,66.9,62.2,29.98,WSW,238,1.0,1.0,85,0.00,,,0.00,Wunderground v.1.15,2013-05-17 05:00:00,
2013-05-17 01:02:00,66.9,62.2,29.98,SW,235,1.0,2.0,85,0.00,,,0.00,Wunderground v.1.15,2013-05-17 05:02:00,
2013-05-17 01:03:00,66.9,62.2,29.98,SW,225,1.0,2.0,85,0.00,,,0.00,Wunderground v.1.15,2013-05-17 05:03:00,
2013-05-17 01:04:00,66.9,62.2,29.98,SW,236,1.0,2.0,85,0.00,,,0.00,Wunderground v.1.15,2013-05-17 05:04:00,
2013-05-17 01:09:00,66.7,62.4,29.98,SW,233,1.0,2.0,86,0.00,,,0.00,Wunderground v.1.15,2013-05-17 05:09:00,
2013-05-17 01:10:00,66.7,62.4,29.98,SSW,213,3.0,3.0,86,0.00,,,0.00,Wunderground v.1.15,2013-05-17 05:10:00,
2013-05-17 01:11:00,66.7,62.4,29.97,WSW,250,1.0,3.0,86,0.00,,,0.00,Wunderground v.1.15,2013-05-17 05:11:00,
2013-05-17 01:12:00,66.8,62.5,29.97,WSW,248,1.0,3.0,86,0.00,,,0.00,Wunderground v.1.15,2013-05-17 05:12:00,
2013-05-17 01:15:00,66.9,62.2,29.97,SW,235,1.0,3.0,85,0.00,,,0.00,Wunderground v.1.15,2013-05-17 05:15:00,
2013-05-17 01:17:00,67.0,62.3,29.97,SW,229,1.0,3.0,85,0.00,,,0.00,Wunderground v.1.15,2013-05-17 05:17:00,
2013-05-17 01:19:00,67.0,62.3,29.98,WSW,238,0.0,3.0,85,0.00,,,0.00,Wunderground v.1.15,2013-05-17 05:19:00,
2013-05-17 01:20:00,67.1,62.4,29.97,SW,225,2.0,2.0,85,0.00,,,0.00,Wunderground v.1.15,2013-05-17 05:20:00,
2013-05-17 01:21:00,67.0,62.3,29.98,SW,225,0.0,2.0,85,0.00,,,0.00,Wunderground v.1.15,2013-05-17 05:21:00,
2013-05-17 01:24:00,67.0,62.3,29.97,SW,229,1.0,2.0,85,0.00,,,0.00,Wunderground v.1.15,2013-05-17 05:24:00,
2013-05-17 01:26:00,67.1,62.4,29.97,WSW,238,1.0,2.0,85,0.00,,,0.00,Wunderground v.1.15,2013-05-17 05:26:00,
2013-05-17 01:27:00,67.1,62.4,29.97,SW,236,1.0,2.0,85,0.00,,,0.00,Wunderground v.1.15,2013-05-17 05:27:00,
2013-05-17 01:30:00,67.1,62.4,29.97,WSW,240,0.0,1.0,85,0.00,,,0.00,Wunderground v.1.15,2013-05-17 05:30:00,
2013-05-17 01:32:00,67.0,62.3,29.97,SW,232,0.0,1.0,85,0.00,,,0.00,Wunderground v.1.15,2013-05-17 05:32:00,
2013-05-17 01:34:00,67.0,62.3,29.97,SW,232,0.0,1.0,85,0.00,,,0.00,Wunderground v.1.15,2013-05-17 05:34:00,
2013-05-17 01:35:00,66.9,62.2,29.97,SW,232,0.0,1.0,85,0.00,,,0.00,Wunderground v.1.15,2013-05-17 05:35:00,
2013-05-17 01:37:00,66.9,62.6,29.97,SW,229,0.0,1.0,86,0.00,,,0.00,Wunderground v.1.15,2013-05-17 05:37:00,
2013-05-17 01:39:00,66.7,62.4,29.97,WSW,238,0.0,1.0,86,0.00,,,0.00,Wunderground v.1.15,2013-05-17 05:39:00,
2013-05-17 01:40:00,66.8,62.5,29.97,WSW,243,0.0,0.0,86,0.00,,,0.00,Wunderground v.1.15,2013-05-17 05:40:00,
2013-05-17 01:41:00,66.8,62.5,29.97,WSW,243,0.0,0.0,86,0.00,,,0.00,Wunderground v.1.15,2013-05-17 05:41:00,
2013-05-17 01:42:00,66.8,62.5,29.97,WSW,243,0.0,0.0,86,0.00,,,0.00,Wunderground v.1.15,2013-05-17 05:42:00,
2013-05-17 01:43:00,66.8,62.5,29.97,WSW,243,0.0,0.0,86,0.00,,,0.00,Wunderground v.1.15,2013-05-17 05:43:00,
2013-05-17 01:45:00,66.7,62.4,29.97,WSW,238,0.0,0.0,86,0.00,,,0.00,Wunderground v.1.15,2013-05-17 05:45:00,
2013-05-17 01:46:00,66.7,62.4,29.97,WSW,238,0.0,0.0,86,0.00,,,0.00,Wunderground v.1.15,2013-05-17 05:46:00,
2013-05-17 01:48:00,66.6,62.3,29.97,WSW,238,0.0,0.0,86,0.00,,,0.00,Wunderground v.1.15,2013-05-17 05:48:00,
2013-05-17 01:49:00,66.5,62.2,29.97,WSW,238,0.0,0.0,86,0.00,,,0.00,Wunderground v.1.15,2013-05-17 05:49:00,
2013-05-17 01:50:00,66.5,62.2,29.97,WSW,238,0.0,0.0,86,0.00,,,0.00,Wunderground v.1.15,2013-05-17 05:50:00,
2013-05-17 01:54:00,66.1,61.8,29.97,WSW,238,0.0,0.0,86,0.00,,,0.00,Wunderground v.1.15,2013-05-17 05:54:00,
2013-05-17 01:55:00,66.0,62.0,29.97,WSW,238,0.0,0.0,87,0.00,,,0.00,Wunderground v.1.15,2013-05-17 05:55:00,
2013-05-17 01:56:00,65.9,61.9,29.97,WSW,240,0.0,0.0,87,0.00,,,0.00,Wunderground v.1.15,2013-05-17 05:56:00,
2013-05-17 01:59:00,65.6,61.6,29.97,WSW,240,0.0,0.0,87,0.00,,,0.00,Wunderground v.1.15,2013-05-17 05:59:00,
2013-05-17 02:01:00,65.4,61.4,29.97,WSW,240,0.0,0.0,87,0.00,,,0.00,Wunderground v.1.15,2013-05-17 06:01:00,
2013-05-17 02:04:00,65.1,61.1,29.97,WSW,240,0.0,0.0,87,0.00,,,0.00,Wunderground v.1.15,2013-05-17 06:04:00,
2013-05-17 02:06:00,64.9,60.9,29.97,WSW,240,0.0,0.0,87,0.00,,,0.00,Wunderground v.1.15,2013-05-17 06:06:00,
2013-05-17 02:07:00,64.8,61.2,29.97,WSW,240,0.0,0.0,88,0.00,,,0.00,Wunderground v.1.15,2013-05-17 06:07:00,
2013-05-17 02:10:00,64.5,60.9,29.97,WSW,240,0.0,0.0,88,0.00,,,0.00,Wunderground v.1.15,2013-05-17 06:10:00,
2013-05-17 02:11:00,64.4,60.8,29.97,WSW,240,0.0,0.0,88,0.00,,,0.00,Wunderground v.1.15,2013-05-17 06:11:00,
2013-05-17 02:12:00,64.3,60.7,29.97,WSW,240,0.0,0.0,88,0.00,,,0.00,Wunderground v.1.15,2013-05-17 06:12:00,
2013-05-17 02:15:00,64.0,60.7,29.97,WSW,240,0.0,0.0,89,0.00,,,0.00,Wunderground v.1.15,2013-05-17 06:15:00,
2013-05-17 02:16:00,63.9,60.6,29.97,WSW,240,0.0,0.0,89,0.00,,,0.00,Wunderground v.1.15,2013-05-17 06:16:00,
2013-05-17 02:17:00,63.9,60.6,29.97,WSW,240,0.0,0.0,89,0.00,,,0.00,Wunderground v.1.15,2013-05-17 06:17:00,
2013-05-17 02:20:00,63.7,60.7,29.97,WSW,240,0.0,0.0,90,0.00,,,0.00,Wunderground v.1.15,2013-05-17 06:20:00,
2013-05-17 02:21:00,63.7,60.7,29.97,WSW,240,0.0,0.0,90,0.00,,,0.00,Wunderground v.1.15,2013-05-17 06:21:00,
2013-05-17 02:22:00,63.6,60.6,29.97,WSW,240,0.0,0.0,90,0.00,,,0.00,Wunderground v.1.15,2013-05-17 06:22:00,
2013-05-17 02:25:00,63.4,60.4,29.97,WSW,240,0.0,0.0,90,0.00,,,0.00,Wunderground v.1.15,2013-05-17 06:25:00,
2013-05-17 02:26:00,63.3,60.3,29.97,WSW,240,0.0,0.0,90,0.00,,,0.00,Wunderground v.1.15,2013-05-17 06:26:00,
2013-05-17 02:27:00,63.3,60.3,29.97,WSW,240,0.0,0.0,90,0.00,,,0.00,Wunderground v.1.15,2013-05-17 06:27:00,
2013-05-17 02:28:00,63.2,60.5,29.97,WSW,240,0.0,0.0,91,0.00,,,0.00,Wunderground v.1.15,2013-05-17 06:28:00,
2013-05-17 02:30:00,63.1,60.7,29.97,WSW,240,0.0,0.0,92,0.00,,,0.00,Wunderground v.1.15,2013-05-17 06:30:00,
2013-05-17 02:31:00,63.1,60.7,29.97,WSW,240,0.0,0.0,92,0.00,,,0.00,Wunderground v.1.15,2013-05-17 06:31:00,
2013-05-17 02:32:00,63.1,60.7,29.97,WSW,240,0.0,0.0,92,0.00,,,0.00,Wunderground v.1.15,2013-05-17 06:32:00,
2013-05-17 02:33:00,63.1,60.7,29.97,WSW,240,0.0,0.0,92,0.00,,,0.00,Wunderground v.1.15,2013-05-17 06:33:00,
2013-05-17 02:35:00,62.9,60.5,29.97,WSW,240,0.0,0.0,92,0.00,,,0.00,Wunderground v.1.15,2013-05-17 06:35:00,
2013-05-17 02:37:00,62.9,60.5,29.97,WSW,240,0.0,0.0,92,0.00,,,0.00,Wunderground v.1.15,2013-05-17 06:37:00,
2013-05-17 02:38:00,62.8,60.4,29.97,WSW,240,0.0,0.0,92,0.00,,,0.00,Wunderground v.1.15,2013-05-17 06:38:00,
2013-05-17 02:40:00,62.7,60.3,29.97,WSW,240,0.0,0.0,92,0.00,,,0.00,Wunderground v.1.15,2013-05-17 06:40:00,
2013-05-17 02:42:00,62.6,60.2,29.97,WSW,240,0.0,0.0,92,0.00,,,0.00,Wunderground v.1.15,2013-05-17 06:42:00,
2013-05-17 02:43:00,62.6,60.5,29.97,WSW,240,0.0,0.0,93,0.00,,,0.00,Wunderground v.1.15,2013-05-17 06:43:00,
2013-05-17 02:45:00,62.5,60.4,29.97,WSW,240,0.0,0.0,93,0.00,,,0.00,Wunderground v.1.15,2013-05-17 06:45:00,
2013-05-17 02:47:00,62.5,60.4,29.97,WSW,240,0.0,0.0,93,0.00,,,0.00,Wunderground v.1.15,2013-05-17 06:47:00,
2013-05-17 02:48:00,62.4,60.7,29.97,WSW,240,0.0,0.0,94,0.00,,,0.00,Wunderground v.1.15,2013-05-17 06:48:00,
2013-05-17 02:49:00,62.4,60.7,29.97,WSW,240,0.0,0.0,94,0.00,,,0.00,Wunderground v.1.15,2013-05-17 06:49:00,
2013-05-17 02:51:00,62.4,60.7,29.97,WSW,240,0.0,0.0,94,0.00,,,0.00,Wunderground v.1.15,2013-05-17 06:51:00,
2013-05-17 02:52:00,62.3,60.6,29.97,WSW,240,0.0,0.0,94,0.00,,,0.00,Wunderground v.1.15,2013-05-17 06:52:00,
2013-05-17 02:54:00,62.3,60.6,29.97,WSW,240,0.0,0.0,94,0.00,,,0.00,Wunderground v.1.15,2013-05-17 06:54:00,
2013-05-17 02:56:00,62.2,60.5,29.97,WSW,240,0.0,0.0,94,0.00,,,0.00,Wunderground v.1.15,2013-05-17 06:56:00,
2013-05-17 02:57:00,62.2,60.5,29.97,WSW,240,0.0,0.0,94,0.00,,,0.00,Wunderground v.1.15,2013-05-17 06:57:00,
2013-05-17 02:58:00,62.1,60.4,29.97,WSW,240,0.0,0.0,94,0.00,,,0.00,Wunderground v.1.15,2013-05-17 06:58:00,
2013-05-17 02:59:00,62.0,60.3,29.98,WSW,240,0.0,0.0,94,0.00,,,0.00,Wunderground v.1.15,2013-05-17 06:59:00,
2013-05-17 03:01:00,62.0,60.3,29.98,WSW,240,0.0,0.0,94,0.00,,,0.00,Wunderground v.1.15,2013-05-17 07:01:00,
2013-05-17 03:02:00,62.0,60.3,29.98,WSW,240,0.0,0.0,94,0.00,,,0.00,Wunderground v.1.15,2013-05-17 07:02:00,
2013-05-17 03:03:00,61.9,60.2,29.98,WSW,240,0.0,0.0,94,0.00,,,0.00,Wunderground v.1.15,2013-05-17 07:03:00,
2013-05-17 03:05:00,61.9,60.2,29.98,WSW,240,0.0,0.0,94,0.00,,,0.00,Wunderground v.1.15,2013-05-17 07:05:00,
2013-05-17 03:06:00,61.9,60.2,29.97,WSW,240,0.0,0.0,94,0.00,,,0.00,Wunderground v.1.15,2013-05-17 07:06:00,
2013-05-17 03:08:00,61.8,60.4,29.97,WSW,240,0.0,0.0,95,0.00,,,0.00,Wunderground v.1.15,2013-05-17 07:08:00,
2013-05-17 03:10:00,61.8,60.4,29.98,WSW,240,0.0,0.0,95,0.00,,,0.00,Wunderground v.1.15,2013-05-17 07:10:00,
2013-05-17 03:11:00,61.7,60.3,29.98,WSW,240,0.0,0.0,95,0.00,,,0.00,Wunderground v.1.15,2013-05-17 07:11:00,
2013-05-17 03:13:00,61.7,60.3,29.98,WSW,240,0.0,0.0,95,0.00,,,0.00,Wunderground v.1.15,2013-05-17 07:13:00,
2013-05-17 03:14:00,61.7,60.3,29.98,WSW,240,0.0,0.0,95,0.00,,,0.00,Wunderground v.1.15,2013-05-17 07:14:00,
2013-05-17 03:15:00,61.6,60.2,29.98,WSW,240,0.0,0.0,95,0.00,,,0.00,Wunderground v.1.15,2013-05-17 07:15:00,
2013-05-17 03:16:00,61.6,60.2,29.98,WSW,240,0.0,0.0,95,0.00,,,0.00,Wunderground v.1.15,2013-05-17 07:16:00,
2013-05-17 03:18:00,61.5,60.1,29.98,WSW,240,0.0,0.0,95,0.00,,,0.00,Wunderground v.1.15,2013-05-17 07:18:00,
2013-05-17 03:19:00,61.5,60.1,29.98,WSW,240,0.0,0.0,95,0.00,,,0.00,Wunderground v.1.15,2013-05-17 07:19:00,
2013-05-17 03:20:00,61.5,60.1,29.98,WSW,240,0.0,0.0,95,0.00,,,0.00,Wunderground v.1.15,2013-05-17 07:20:00,
2013-05-17 03:22:00,61.4,60.0,29.98,WSW,240,0.0,0.0,95,0.00,,,0.00,Wunderground v.1.15,2013-05-17 07:22:00,
2013-05-17 03:23:00,61.4,60.0,29.98,WSW,240,0.0,0.0,95,0.00,,,0.00,Wunderground v.1.15,2013-05-17 07:23:00,
2013-05-17 03:24:00,61.4,60.0,29.98,WSW,240,0.0,0.0,95,0.00,,,0.00,Wunderground v.1.15,2013-05-17 07:24:00,
2013-05-17 03:25:00,61.4,60.0,29.98,WSW,240,0.0,0.0,95,0.00,,,0.00,Wunderground v.1.15,2013-05-17 07:25:00,
2013-05-17 03:27:00,61.3,59.9,29.98,WSW,240,0.0,0.0,95,0.00,,,0.00,Wunderground v.1.15,2013-05-17 07:27:00,
2013-05-17 03:28:00,61.3,59.9,29.98,WSW,240,0.0,0.0,95,0.00,,,0.00,Wunderground v.1.15,2013-05-17 07:28:00,
2013-05-17 03:29:00,61.2,59.8,29.98,WSW,240,0.0,0.0,95,0.00,,,0.00,Wunderground v.1.15,2013-05-17 07:29:00,
2013-05-17 03:30:00,61.2,59.8,29.98,WSW,240,0.0,0.0,95,0.00,,,0.00,Wunderground v.1.15,2013-05-17 07:30:00,
2013-05-17 03:33:00,61.2,60.1,29.98,WSW,240,0.0,0.0,96,0.00,,,0.00,Wunderground v.1.15,2013-05-17 07:33:00,
2013-05-17 03:34:00,61.1,60.0,29.98,WSW,240,0.0,0.0,96,0.00,,,0.00,Wunderground v.1.15,2013-05-17 07:34:00,
2013-05-17 03:35:00,61.1,60.0,29.98,WSW,240,0.0,0.0,96,0.00,,,0.00,Wunderground v.1.15,2013-05-17 07:35:00,
2013-05-17 03:36:00,61.1,60.0,29.98,WSW,240,0.0,0.0,96,0.00,,,0.00,Wunderground v.1.15,2013-05-17 07:36:00,
2013-05-17 03:38:00,61.0,59.6,29.98,WSW,240,0.0,0.0,95,0.00,,,0.00,Wunderground v.1.15,2013-05-17 07:38:00,
2013-05-17 03:39:00,61.0,59.6,29.98,WSW,240,0.0,0.0,95,0.00,,,0.00,Wunderground v.1.15,2013-05-17 07:39:00,
2013-05-17 03:40:00,60.9,59.5,29.98,WSW,240,0.0,0.0,95,0.00,,,0.00,Wunderground v.1.15,2013-05-17 07:40:00,
2013-05-17 03:41:00,60.9,59.5,29.98,WSW,240,0.0,0.0,95,0.00,,,0.00,Wunderground v.1.15,2013-05-17 07:41:00,
2013-05-17 03:44:00,60.8,59.7,29.99,WSW,240,0.0,0.0,96,0.00,,,0.00,Wunderground v.1.15,2013-05-17 07:44:00,
2013-05-17 03:45:00,60.8,59.7,29.99,WSW,240,0.0,0.0,96,0.00,,,0.00,Wunderground v.1.15,2013-05-17 07:45:00,
2013-05-17 03:46:00,60.7,59.6,29.99,WSW,240,0.0,0.0,96,0.00,,,0.00,Wunderground v.1.15,2013-05-17 07:46:00,
2013-05-17 03:49:00,60.7,59.6,29.99,WSW,240,0.0,0.0,96,0.00,,,0.00,Wunderground v.1.15,2013-05-17 07:49:00,
2013-05-17 03:50:00,60.7,59.6,29.99,WSW,240,0.0,0.0,96,0.00,,,0.00,Wunderground v.1.15,2013-05-17 07:50:00,
2013-05-17 03:51:00,60.7,59.6,29.99,WSW,240,0.0,0.0,96,0.00,,,0.00,Wunderground v.1.15,2013-05-17 07:51:00,
2013-05-17 03:54:00,60.6,59.5,29.99,WSW,240,0.0,0.0,96,0.00,,,0.00,Wunderground v.1.15,2013-05-17 07:54:00,
2013-05-17 03:55:00,60.6,59.5,29.99,WSW,240,0.0,0.0,96,0.00,,,0.00,Wunderground v.1.15,2013-05-17 07:55:00,
2013-05-17 03:56:00,60.6,59.5,29.99,WSW,240,0.0,0.0,96,0.00,,,0.00,Wunderground v.1.15,2013-05-17 07:56:00,
2013-05-17 04:00:00,60.5,59.4,29.99,WSW,240,0.0,0.0,96,0.00,,,0.00,Wunderground v.1.15,2013-05-17 08:00:00,
2013-05-17 04:01:00,60.4,59.3,29.99,WSW,240,0.0,0.0,96,0.00,,,0.00,Wunderground v.1.15,2013-05-17 08:01:00,
2013-05-17 04:02:00,60.3,59.2,29.99,WSW,240,0.0,0.0,96,0.00,,,0.00,Wunderground v.1.15,2013-05-17 08:02:00,
2013-05-17 04:05:00,60.3,59.2,29.99,WSW,240,0.0,0.0,96,0.00,,,0.00,Wunderground v.1.15,2013-05-17 08:05:00,
2013-05-17 04:06:00,60.3,59.2,29.99,WSW,240,0.0,0.0,96,0.00,,,0.00,Wunderground v.1.15,2013-05-17 08:06:00,
2013-05-17 04:07:00,60.2,59.1,29.99,WSW,240,0.0,0.0,96,0.00,,,0.00,Wunderground v.1.15,2013-05-17 08:07:00,
2013-05-17 04:10:00,60.2,59.1,29.99,WSW,240,0.0,0.0,96,0.00,,,0.00,Wunderground v.1.15,2013-05-17 08:10:00,
2013-05-17 04:11:00,60.2,59.1,29.99,WSW,240,0.0,0.0,96,0.00,,,0.00,Wunderground v.1.15,2013-05-17 08:11:00,
2013-05-17 04:12:00,60.1,59.0,29.99,WSW,240,0.0,0.0,96,0.00,,,0.00,Wunderground v.1.15,2013-05-17 08:12:00,
2013-05-17 04:15:00,60.0,58.9,29.99,WSW,240,0.0,0.0,96,0.00,,,0.00,Wunderground v.1.15,2013-05-17 08:15:00,
2013-05-17 04:16:00,60.0,58.9,29.99,WSW,240,0.0,0.0,96,0.00,,,0.00,Wunderground v.1.15,2013-05-17 08:16:00,
2013-05-17 04:17:00,60.0,58.9,29.99,WSW,240,0.0,0.0,96,0.00,,,0.00,Wunderground v.1.15,2013-05-17 08:17:00,
2013-05-17 04:21:00,59.9,58.8,29.99,WSW,240,0.0,0.0,96,0.00,,,0.00,Wunderground v.1.15,2013-05-17 08:21:00,
2013-05-17 04:22:00,59.9,58.8,29.99,WSW,240,0.0,0.0,96,0.00,,,0.00,Wunderground v.1.15,2013-05-17 08:22:00,
2013-05-17 04:26:00,59.8,58.9,29.99,WSW,240,0.0,0.0,97,0.00,,,0.00,Wunderground v.1.15,2013-05-17 08:26:00,
2013-05-17 04:27:00,59.8,58.9,29.99,WSW,240,0.0,0.0,97,0.00,,,0.00,Wunderground v.1.15,2013-05-17 08:27:00,
2013-05-17 04:31:00,59.7,58.8,29.99,WSW,240,0.0,0.0,97,0.00,,,0.00,Wunderground v.1.15,2013-05-17 08:31:00,
2013-05-17 04:32:00,59.7,58.8,29.99,WSW,240,0.0,0.0,97,0.00,,,0.00,Wunderground v.1.15,2013-05-17 08:32:00,
2013-05-17 04:36:00,59.7,58.8,29.99,WSW,240,0.0,0.0,97,0.00,,,0.00,Wunderground v.1.15,2013-05-17 08:36:00,
2013-05-17 04:37:00,59.6,58.7,29.99,WSW,240,0.0,0.0,97,0.00,,,0.00,Wunderground v.1.15,2013-05-17 08:37:00,
2013-05-17 04:38:00,59.6,58.7,29.99,WSW,240,0.0,0.0,97,0.00,,,0.00,Wunderground v.1.15,2013-05-17 08:38:00,
2013-05-17 04:41:00,59.5,58.6,29.99,WSW,240,0.0,0.0,97,0.00,,,0.00,Wunderground v.1.15,2013-05-17 08:41:00,
2013-05-17 04:43:00,59.5,58.6,29.99,WSW,240,0.0,0.0,97,0.00,,,0.00,Wunderground v.1.15,2013-05-17 08:43:00,
2013-05-17 04:44:00,59.5,58.6,29.99,WSW,240,0.0,0.0,97,0.00,,,0.00,Wunderground v.1.15,2013-05-17 08:44:00,
2013-05-17 04:46:00,59.5,58.6,29.99,WSW,240,0.0,0.0,97,0.00,,,0.00,Wunderground v.1.15,2013-05-17 08:46:00,
2013-05-17 04:48:00,59.5,58.6,29.99,WSW,240,0.0,0.0,97,0.00,,,0.00,Wunderground v.1.15,2013-05-17 08:48:00,
2013-05-17 04:49:00,59.5,58.6,29.99,WSW,240,0.0,0.0,97,0.00,,,0.00,Wunderground v.1.15,2013-05-17 08:49:00,
2013-05-17 04:51:00,59.4,58.5,29.99,WSW,240,0.0,0.0,97,0.00,,,0.00,Wunderground v.1.15,2013-05-17 08:51:00,
2013-05-17 04:53:00,59.4,58.5,29.99,WSW,240,0.0,0.0,97,0.00,,,0.00,Wunderground v.1.15,2013-05-17 08:53:00,
2013-05-17 04:54:00,59.4,58.5,29.99,WSW,240,0.0,0.0,97,0.00,,,0.00,Wunderground v.1.15,2013-05-17 08:54:00,
2013-05-17 04:56:00,59.4,58.5,29.99,WSW,240,0.0,0.0,97,0.00,,,0.00,Wunderground v.1.15,2013-05-17 08:56:00,
2013-05-17 04:58:00,59.4,58.5,29.99,WSW,240,0.0,0.0,97,0.00,,,0.00,Wunderground v.1.15,2013-05-17 08:58:00,
2013-05-17 04:59:00,59.4,58.5,29.99,WSW,240,0.0,0.0,97,0.00,,,0.00,Wunderground v.1.15,2013-05-17 08:59:00,
2013-05-17 05:01:00,59.4,58.5,29.99,WSW,240,0.0,0.0,97,0.00,,,0.00,Wunderground v.1.15,2013-05-17 09:01:00,
2013-05-17 05:02:00,59.4,58.5,29.99,WSW,240,0.0,0.0,97,0.00,,,0.00,Wunderground v.1.15,2013-05-17 09:02:00,
2013-05-17 05:03:00,59.3,58.4,29.99,WSW,240,0.0,0.0,97,0.00,,,0.00,Wunderground v.1.15,2013-05-17 09:03:00,
2013-05-17 05:04:00,59.3,58.4,29.99,WSW,240,0.0,0.0,97,0.00,,,0.00,Wunderground v.1.15,2013-05-17 09:04:00,
2013-05-17 05:06:00,59.3,58.4,29.99,WSW,240,0.0,0.0,97,0.00,,,0.00,Wunderground v.1.15,2013-05-17 09:06:00,
2013-05-17 05:07:00,59.2,58.3,29.99,WSW,240,0.0,0.0,97,0.00,,,0.00,Wunderground v.1.15,2013-05-17 09:07:00,
2013-05-17 05:08:00,59.2,58.3,29.99,WSW,240,0.0,0.0,97,0.00,,,0.00,Wunderground v.1.15,2013-05-17 09:08:00,
2013-05-17 05:09:00,59.2,58.3,29.99,WSW,240,0.0,0.0,97,0.00,,,0.00,Wunderground v.1.15,2013-05-17 09:09:00,
2013-05-17 05:12:00,59.1,58.2,29.99,WSW,240,0.0,0.0,97,0.00,,,0.00,Wunderground v.1.15,2013-05-17 09:12:00,
2013-05-17 05:14:00,59.1,58.2,29.99,WSW,240,0.0,0.0,97,0.00,,,0.00,Wunderground v.1.15,2013-05-17 09:14:00,
2013-05-17 05:17:00,59.0,58.2,30.00,WSW,240,0.0,0.0,97,0.00,,,0.00,Wunderground v.1.15,2013-05-17 09:17:00,
2013-05-17 05:19:00,58.9,58.1,30.00,WSW,240,0.0,0.0,97,0.00,,,0.00,Wunderground v.1.15,2013-05-17 09:19:00,
2013-05-17 05:20:00,58.9,58.1,30.00,WSW,240,0.0,0.0,97,0.00,,,0.00,Wunderground v.1.15,2013-05-17 09:20:00,
2013-05-17 05:22:00,58.8,58.0,30.00,WSW,240,0.0,0.0,97,0.00,,,0.00,Wunderground v.1.15,2013-05-17 09:22:00,
2013-05-17 05:23:00,58.7,57.9,30.00,WSW,240,0.0,0.0,97,0.00,,,0.00,Wunderground v.1.15,2013-05-17 09:23:00,
2013-05-17 05:24:00,58.7,57.9,30.00,WSW,240,0.0,0.0,97,0.00,,,0.00,Wunderground v.1.15,2013-05-17 09:24:00,
2013-05-17 05:25:00,58.7,57.9,30.00,WSW,240,0.0,0.0,97,0.00,,,0.00,Wunderground v.1.15,2013-05-17 09:25:00,
2013-05-17 05:28:00,58.6,57.8,30.00,WSW,240,0.0,0.0,97,0.00,,,0.00,Wunderground v.1.15,2013-05-17 09:28:00,
2013-05-17 05:29:00,58.5,57.7,30.00,WSW,240,0.0,0.0,97,0.00,,,0.00,Wunderground v.1.15,2013-05-17 09:29:00,
2013-05-17 05:30:00,58.5,57.7,30.00,WSW,240,0.0,0.0,97,0.00,,,0.00,Wunderground v.1.15,2013-05-17 09:30:00,
2013-05-17 05:31:00,58.5,57.7,30.00,WSW,240,0.0,0.0,97,0.00,,,0.00,Wunderground v.1.15,2013-05-17 09:31:00,
2013-05-17 05:33:00,58.3,57.5,30.00,WSW,240,0.0,0.0,97,0.00,,,0.00,Wunderground v.1.15,2013-05-17 09:33:00,
2013-05-17 05:34:00,58.3,57.5,30.00,WSW,240,0.0,0.0,97,0.00,,,0.00,Wunderground v.1.15,2013-05-17 09:34:00,
2013-05-17 05:35:00,58.3,57.5,30.00,WSW,240,0.0,0.0,97,0.00,,,0.00,Wunderground v.1.15,2013-05-17 09:35:00,
2013-05-17 05:36:00,58.3,57.5,30.00,WSW,240,0.0,0.0,97,0.00,,,0.00,Wunderground v.1.15,2013-05-17 09:36:00,
2013-05-17 05:39:00,58.2,57.4,30.00,WSW,240,0.0,0.0,97,0.00,,,0.00,Wunderground v.1.15,2013-05-17 09:39:00,
2013-05-17 05:40:00,58.1,57.3,30.00,WSW,240,0.0,0.0,97,0.00,,,0.00,Wunderground v.1.15,2013-05-17 09:40:00,
2013-05-17 05:41:00,58.1,57.3,30.00,WSW,240,0.0,0.0,97,0.00,,,0.00,Wunderground v.1.15,2013-05-17 09:41:00,
2013-05-17 05:44:00,58.0,57.2,30.00,WSW,240,0.0,0.0,97,0.00,,,0.00,Wunderground v.1.15,2013-05-17 09:44:00,
2013-05-17 05:45:00,58.0,57.2,30.00,WSW,240,0.0,0.0,97,0.00,,,0.00,Wunderground v.1.15,2013-05-17 09:45:00,
2013-05-17 05:46:00,57.9,57.1,30.00,WSW,240,0.0,0.0,97,0.00,,,0.00,Wunderground v.1.15,2013-05-17 09:46:00,
2013-05-17 05:49:00,57.8,57.0,30.00,WSW,240,0.0,0.0,97,0.00,,,0.00,Wunderground v.1.15,2013-05-17 09:49:00,
2013-05-17 05:50:00,57.8,57.0,30.00,WSW,240,0.0,0.0,97,0.00,,,0.00,Wunderground v.1.15,2013-05-17 09:50:00,
2013-05-17 05:51:00,57.8,57.0,30.00,WSW,240,0.0,0.0,97,0.00,,,0.00,Wunderground v.1.15,2013-05-17 09:51:00,
2013-05-17 05:54:00,57.8,57.0,30.00,WSW,240,0.0,0.0,97,0.00,,,0.00,Wunderground v.1.15,2013-05-17 09:54:00,
2013-05-17 05:55:00,57.8,57.0,30.00,WSW,240,0.0,0.0,97,0.00,,,0.00,Wunderground v.1.15,2013-05-17 09:55:00,
2013-05-17 05:56:00,57.8,57.0,30.00,WSW,240,0.0,0.0,97,0.00,,,0.00,Wunderground v.1.15,2013-05-17 09:56:00,
2013-05-17 06:00:00,57.8,57.0,30.00,WSW,240,0.0,0.0,97,0.00,,,0.00,Wunderground v.1.15,2013-05-17 10:00:00,
2013-05-17 06:01:00,57.8,57.0,30.01,WSW,240,0.0,0.0,97,0.00,,,0.00,Wunderground v.1.15,2013-05-17 10:01:00,
2013-05-17 06:05:00,57.8,57.2,30.01,WSW,240,0.0,0.0,98,0.00,,,0.00,Wunderground v.1.15,2013-05-17 10:05:00,
2013-05-17 06:06:00,57.8,57.2,30.01,WSW,240,0.0,0.0,98,0.00,,,0.00,Wunderground v.1.15,2013-05-17 10:06:00,
2013-05-17 06:07:00,57.7,57.1,30.01,WSW,240,0.0,0.0,98,0.00,,,0.00,Wunderground v.1.15,2013-05-17 10:07:00,
2013-05-17 06:10:00,57.7,56.9,30.01,WSW,240,0.0,0.0,97,0.00,,,0.00,Wunderground v.1.15,2013-05-17 10:10:00,
2013-05-17 06:11:00,57.7,56.9,30.01,WSW,240,0.0,0.0,97,0.00,,,0.00,Wunderground v.1.15,2013-05-17 10:11:00,
2013-05-17 06:12:00,57.5,56.7,30.01,WSW,240,0.0,0.0,97,0.00,,,0.00,Wunderground v.1.15,2013-05-17 10:12:00,
2013-05-17 06:15:00,57.6,56.8,30.01,WSW,240,0.0,0.0,97,0.00,,,0.00,Wunderground v.1.15,2013-05-17 10:15:00,
2013-05-17 06:16:00,57.5,56.7,30.01,WSW,240,0.0,0.0,97,0.00,,,0.00,Wunderground v.1.15,2013-05-17 10:16:00,
2013-05-17 06:17:00,57.6,56.8,30.01,WSW,240,0.0,0.0,97,0.00,,,0.00,Wunderground v.1.15,2013-05-17 10:17:00,
2013-05-17 06:21:00,57.6,57.0,30.01,WSW,240,0.0,0.0,98,0.00,,,0.00,Wunderground v.1.15,2013-05-17 10:21:00,
2013-05-17 06:23:00,57.6,57.0,30.02,WSW,240,0.0,0.0,98,0.00,,,0.00,Wunderground v.1.15,2013-05-17 10:23:00,
2013-05-17 06:26:00,57.5,56.7,30.02,WSW,240,0.0,0.0,97,0.00,,,0.00,Wunderground v.1.15,2013-05-17 10:26:00,
2013-05-17 06:27:00,57.5,56.7,30.02,WSW,240,0.0,0.0,97,0.00,,,0.00,Wunderground v.1.15,2013-05-17 10:27:00,
2013-05-17 06:28:00,57.4,56.6,30.02,WSW,240,0.0,0.0,97,0.00,,,0.00,Wunderground v.1.15,2013-05-17 10:28:00,
2013-05-17 06:31:00,57.4,56.6,30.02,WSW,240,0.0,0.0,97,0.00,,,0.00,Wunderground v.1.15,2013-05-17 10:31:00,
2013-05-17 06:32:00,57.4,56.6,30.02,WSW,240,0.0,0.0,97,0.00,,,0.00,Wunderground v.1.15,2013-05-17 10:32:00,
2013-05-17 06:33:00,57.4,56.6,30.02,WSW,240,0.0,0.0,97,0.00,,,0.00,Wunderground v.1.15,2013-05-17 10:33:00,
2013-05-17 06:36:00,57.4,56.8,30.02,WSW,240,0.0,0.0,98,0.00,,,0.00,Wunderground v.1.15,2013-05-17 10:36:00,
2013-05-17 06:37:00,57.4,56.8,30.03,WSW,240,0.0,0.0,98,0.00,,,0.00,Wunderground v.1.15,2013-05-17 10:37:00,
2013-05-17 06:38:00,57.4,56.8,30.02,WSW,240,0.0,0.0,98,0.00,,,0.00,Wunderground v.1.15,2013-05-17 10:38:00,
2013-05-17 06:41:00,57.4,56.8,30.03,WSW,240,0.0,0.0,98,0.00,,,0.00,Wunderground v.1.15,2013-05-17 10:41:00,
2013-05-17 06:42:00,57.4,56.8,30.02,WSW,240,0.0,0.0,98,0.00,,,0.00,Wunderground v.1.15,2013-05-17 10:42:00,
2013-05-17 06:43:00,57.5,56.9,30.03,WSW,240,0.0,0.0,98,0.00,,,0.00,Wunderground v.1.15,2013-05-17 10:43:00,
2013-05-17 06:46:00,57.6,57.0,30.03,WSW,240,0.0,0.0,98,0.00,,,0.00,Wunderground v.1.15,2013-05-17 10:46:00,
2013-05-17 06:47:00,57.6,57.0,30.03,WSW,240,0.0,0.0,98,0.00,,,0.00,Wunderground v.1.15,2013-05-17 10:47:00,
2013-05-17 06:49:00,57.6,57.0,30.03,WSW,240,0.0,0.0,98,0.00,,,0.00,Wunderground v.1.15,2013-05-17 10:49:00,
2013-05-17 06:51:00,57.7,57.1,30.03,WSW,240,0.0,0.0,98,0.00,,,0.00,Wunderground v.1.15,2013-05-17 10:51:00,
2013-05-17 06:52:00,57.7,57.1,30.03,WSW,240,0.0,0.0,98,0.00,,,0.00,Wunderground v.1.15,2013-05-17 10:52:00,
2013-05-17 06:55:00,57.8,57.2,30.03,WSW,240,0.0,0.0,98,0.00,,,0.00,Wunderground v.1.15,2013-05-17 10:55:00,
2013-05-17 06:56:00,57.8,57.2,30.03,WSW,240,0.0,0.0,98,0.00,,,0.00,Wunderground v.1.15,2013-05-17 10:56:00,
2013-05-17 06:57:00,57.8,57.2,30.03,WSW,240,0.0,0.0,98,0.00,,,0.00,Wunderground v.1.15,2013-05-17 10:57:00,
2013-05-17 06:58:00,57.8,57.2,30.03,WSW,240,0.0,0.0,98,0.00,,,0.00,Wunderground v.1.15,2013-05-17 10:58:00,
2013-05-17 07:00:00,57.9,57.3,30.03,WSW,240,0.0,0.0,98,0.00,,,0.00,Wunderground v.1.15,2013-05-17 11:00:00,
2013-05-17 07:01:00,58.0,57.4,30.03,WSW,240,0.0,0.0,98,0.00,,,0.00,Wunderground v.1.15,2013-05-17 11:01:00,
2013-05-17 07:02:00,58.0,57.4,30.03,WSW,240,0.0,0.0,98,0.00,,,0.00,Wunderground v.1.15,2013-05-17 11:02:00,
2013-05-17 07:03:00,58.1,57.5,30.03,WSW,240,0.0,0.0,98,0.00,,,0.00,Wunderground v.1.15,2013-05-17 11:03:00,
2013-05-17 07:06:00,58.2,57.6,30.03,WSW,240,0.0,0.0,98,0.00,,,0.00,Wunderground v.1.15,2013-05-17 11:06:00,
2013-05-17 07:07:00,58.3,57.7,30.03,WSW,240,0.0,0.0,98,0.00,,,0.00,Wunderground v.1.15,2013-05-17 11:07:00,
2013-05-17 07:08:00,58.3,57.7,30.04,WSW,240,0.0,0.0,98,0.00,,,0.00,Wunderground v.1.15,2013-05-17 11:08:00,
2013-05-17 07:11:00,58.5,57.9,30.04,WSW,240,0.0,0.0,98,0.00,,,0.00,Wunderground v.1.15,2013-05-17 11:11:00,
2013-05-17 07:12:00,58.5,57.9,30.04,WSW,240,0.0,0.0,98,0.00,,,0.00,Wunderground v.1.15,2013-05-17 11:12:00,
2013-05-17 07:13:00,58.6,58.0,30.04,WSW,240,0.0,0.0,98,0.00,,,0.00,Wunderground v.1.15,2013-05-17 11:13:00,
2013-05-17 07:16:00,58.8,58.2,30.04,WSW,240,0.0,0.0,98,0.00,,,0.00,Wunderground v.1.15,2013-05-17 11:16:00,
2013-05-17 07:17:00,58.9,58.3,30.04,WSW,240,0.0,0.0,98,0.00,,,0.00,Wunderground v.1.15,2013-05-17 11:17:00,
2013-05-17 07:18:00,59.0,58.4,30.04,WSW,240,0.0,0.0,98,0.00,,,0.00,Wunderground v.1.15,2013-05-17 11:18:00,
2013-05-17 07:19:00,59.0,58.4,30.04,WSW,240,0.0,0.0,98,0.00,,,0.00,Wunderground v.1.15,2013-05-17 11:19:00,
2013-05-17 07:21:00,59.2,58.6,30.04,WSW,240,0.0,0.0,98,0.00,,,0.00,Wunderground v.1.15,2013-05-17 11:21:00,
2013-05-17 07:22:00,59.3,58.7,30.04,WSW,240,0.0,0.0,98,0.00,,,0.00,Wunderground v.1.15,2013-05-17 11:22:00,
2013-05-17 07:23:00,59.3,58.7,30.04,WSW,240,0.0,0.0,98,0.00,,,0.00,Wunderground v.1.15,2013-05-17 11:23:00,
2013-05-17 07:24:00,59.5,58.9,30.04,WSW,240,0.0,0.0,98,0.00,,,0.00,Wunderground v.1.15,2013-05-17 11:24:00,
2013-05-17 07:26:00,59.6,59.0,30.04,WSW,240,0.0,0.0,98,0.00,,,0.00,Wunderground v.1.15,2013-05-17 11:26:00,
2013-05-17 07:27:00,59.6,59.0,30.04,WSW,240,0.0,0.0,98,0.00,,,0.00,Wunderground v.1.15,2013-05-17 11:27:00,
2013-05-17 07:28:00,59.7,59.1,30.04,WSW,240,0.0,0.0,98,0.00,,,0.00,Wunderground v.1.15,2013-05-17 11:28:00,
2013-05-17 07:29:00,59.8,59.2,30.04,WSW,240,0.0,0.0,98,0.00,,,0.00,Wunderground v.1.15,2013-05-17 11:29:00,
2013-05-17 07:31:00,59.8,59.2,30.04,WSW,240,0.0,0.0,98,0.00,,,0.00,Wunderground v.1.15,2013-05-17 11:31:00,
2013-05-17 07:32:00,59.9,59.3,30.03,WSW,240,0.0,0.0,98,0.00,,,0.00,Wunderground v.1.15,2013-05-17 11:32:00,
2013-05-17 07:33:00,59.9,59.3,30.03,WSW,240,0.0,0.0,98,0.00,,,0.00,Wunderground v.1.15,2013-05-17 11:33:00,
2013-05-17 07:35:00,60.0,59.4,30.03,WSW,240,0.0,0.0,98,0.00,,,0.00,Wunderground v.1.15,2013-05-17 11:35:00,
2013-05-17 07:36:00,60.1,59.5,30.03,WSW,240,0.0,0.0,98,0.00,,,0.00,Wunderground v.1.15,2013-05-17 11:36:00,
2013-05-17 07:37:00,60.1,59.5,30.04,WSW,240,0.0,0.0,98,0.00,,,0.00,Wunderground v.1.15,2013-05-17 11:37:00,
2013-05-17 07:38:00,60.2,59.6,30.04,WSW,240,0.0,0.0,98,0.00,,,0.00,Wunderground v.1.15,2013-05-17 11:38:00,
2013-05-17 07:40:00,60.3,59.7,30.04,WSW,240,0.0,0.0,98,0.00,,,0.00,Wunderground v.1.15,2013-05-17 11:40:00,
2013-05-17 07:42:00,60.4,59.8,30.04,WSW,240,0.0,0.0,98,0.00,,,0.00,Wunderground v.1.15,2013-05-17 11:42:00,
2013-05-17 07:43:00,60.5,59.9,30.04,WSW,240,0.0,0.0,98,0.00,,,0.00,Wunderground v.1.15,2013-05-17 11:43:00,
2013-05-17 07:44:00,60.5,59.9,30.04,WSW,240,0.0,0.0,98,0.00,,,0.00,Wunderground v.1.15,2013-05-17 11:44:00,
2013-05-17 07:45:00,60.6,60.0,30.04,WSW,240,0.0,0.0,98,0.00,,,0.00,Wunderground v.1.15,2013-05-17 11:45:00,
2013-05-17 07:47:00,60.7,60.1,30.04,WSW,240,0.0,0.0,98,0.00,,,0.00,Wunderground v.1.15,2013-05-17 11:47:00,
2013-05-17 07:48:00,60.8,60.2,30.04,WSW,240,0.0,0.0,98,0.00,,,0.00,Wunderground v.1.15,2013-05-17 11:48:00,
2013-05-17 07:49:00,60.8,60.2,30.04,WSW,240,0.0,0.0,98,0.00,,,0.00,Wunderground v.1.15,2013-05-17 11:49:00,
2013-05-17 07:50:00,60.9,60.3,30.04,WSW,240,0.0,0.0,98,0.00,,,0.00,Wunderground v.1.15,2013-05-17 11:50:00,
2013-05-17 07:52:00,61.0,60.4,30.04,WSW,240,0.0,0.0,98,0.00,,,0.00,Wunderground v.1.15,2013-05-17 11:52:00,
2013-05-17 07:53:00,61.1,60.5,30.04,WSW,240,0.0,0.0,98,0.00,,,0.00,Wunderground v.1.15,2013-05-17 11:53:00,
2013-05-17 07:54:00,61.2,60.6,30.04,WSW,240,0.0,0.0,98,0.00,,,0.00,Wunderground v.1.15,2013-05-17 11:54:00,
2013-05-17 07:55:00,61.2,60.6,30.04,WSW,240,0.0,0.0,98,0.00,,,0.00,Wunderground v.1.15,2013-05-17 11:55:00,
2013-05-17 07:57:00,61.3,60.7,30.04,WSW,240,0.0,0.0,98,0.00,,,0.00,Wunderground v.1.15,2013-05-17 11:57:00,
2013-05-17 07:58:00,61.3,60.7,30.04,WSW,240,0.0,0.0,98,0.00,,,0.00,Wunderground v.1.15,2013-05-17 11:58:00,
2013-05-17 07:59:00,61.3,60.7,30.04,WSW,240,0.0,0.0,98,0.00,,,0.00,Wunderground v.1.15,2013-05-17 11:59:00,
2013-05-17 08:00:00,61.3,60.7,30.04,WSW,240,0.0,0.0,98,0.00,,,0.00,Wunderground v.1.15,2013-05-17 12:00:00,
2013-05-17 08:02:00,61.3,60.7,30.04,WSW,240,0.0,0.0,98,0.00,,,0.00,Wunderground v.1.15,2013-05-17 12:02:00,
2013-05-17 08:03:00,61.3,60.7,30.05,WSW,240,0.0,0.0,98,0.00,,,0.00,Wunderground v.1.15,2013-05-17 12:03:00,
2013-05-17 08:04:00,61.3,60.7,30.05,WSW,240,0.0,0.0,98,0.00,,,0.00,Wunderground v.1.15,2013-05-17 12:04:00,
2013-05-17 08:05:00,61.3,60.4,30.05,WSW,240,0.0,0.0,97,0.00,,,0.00,Wunderground v.1.15,2013-05-17 12:05:00,
2013-05-17 08:07:00,61.2,60.3,30.05,WSW,240,0.0,0.0,97,0.00,,,0.00,Wunderground v.1.15,2013-05-17 12:07:00,
2013-05-17 08:08:00,61.2,60.3,30.05,WSW,240,0.0,0.0,97,0.00,,,0.00,Wunderground v.1.15,2013-05-17 12:08:00,
2013-05-17 08:09:00,61.2,60.3,30.05,WSW,240,0.0,0.0,97,0.00,,,0.00,Wunderground v.1.15,2013-05-17 12:09:00,
2013-05-17 08:10:00,61.2,60.3,30.04,WSW,240,0.0,0.0,97,0.00,,,0.00,Wunderground v.1.15,2013-05-17 12:10:00,
2013-05-17 08:11:00,61.2,60.3,30.04,WSW,240,0.0,0.0,97,0.00,,,0.00,Wunderground v.1.15,2013-05-17 12:11:00,
2013-05-17 08:12:00,61.2,60.3,30.04,WSW,240,0.0,0.0,97,0.00,,,0.00,Wunderground v.1.15,2013-05-17 12:12:00,
2013-05-17 08:14:00,61.3,60.4,30.04,WSW,240,0.0,0.0,97,0.00,,,0.00,Wunderground v.1.15,2013-05-17 12:14:00,
2013-05-17 08:15:00,61.4,60.5,30.05,WSW,240,0.0,0.0,97,0.00,,,0.00,Wunderground v.1.15,2013-05-17 12:15:00,
2013-05-17 08:16:00,61.4,60.5,30.05,WSW,240,0.0,0.0,97,0.00,,,0.00,Wunderground v.1.15,2013-05-17 12:16:00,
2013-05-17 08:18:00,61.5,60.6,30.05,WSW,240,0.0,0.0,97,0.00,,,0.00,Wunderground v.1.15,2013-05-17 12:18:00,
2013-05-17 08:19:00,61.5,60.6,30.05,WSW,240,0.0,0.0,97,0.00,,,0.00,Wunderground v.1.15,2013-05-17 12:19:00,
2013-05-17 08:20:00,61.6,60.7,30.05,WSW,240,0.0,0.0,97,0.00,,,0.00,Wunderground v.1.15,2013-05-17 12:20:00,
2013-05-17 08:21:00,61.6,60.7,30.05,WSW,240,0.0,0.0,97,0.00,,,0.00,Wunderground v.1.15,2013-05-17 12:21:00,
2013-05-17 08:23:00,61.6,60.7,30.05,WSW,240,0.0,0.0,97,0.00,,,0.00,Wunderground v.1.15,2013-05-17 12:23:00,
2013-05-17 08:24:00,61.6,60.7,30.05,WSW,240,0.0,0.0,97,0.00,,,0.00,Wunderground v.1.15,2013-05-17 12:24:00,
2013-05-17 08:25:00,61.6,60.7,30.05,WSW,240,0.0,0.0,97,0.00,,,0.00,Wunderground v.1.15,2013-05-17 12:25:00,
2013-05-17 08:26:00,61.7,60.8,30.05,WSW,240,0.0,0.0,97,0.00,,,0.00,Wunderground v.1.15,2013-05-17 12:26:00,
2013-05-17 08:28:00,61.8,60.9,30.05,WSW,240,0.0,0.0,97,0.00,,,0.00,Wunderground v.1.15,2013-05-17 12:28:00,
2013-05-17 08:29:00,61.8,60.9,30.05,WSW,240,0.0,0.0,97,0.00,,,0.00,Wunderground v.1.15,2013-05-17 12:29:00,
2013-05-17 08:30:00,62.0,61.1,30.05,WSW,240,0.0,0.0,97,0.00,,,0.00,Wunderground v.1.15,2013-05-17 12:30:00,
2013-05-17 08:31:00,62.1,61.2,30.05,WSW,240,0.0,0.0,97,0.00,,,0.00,Wunderground v.1.15,2013-05-17 12:31:00,
2013-05-17 08:33:00,62.2,61.3,30.05,WSW,240,0.0,0.0,97,0.00,,,0.00,Wunderground v.1.15,2013-05-17 12:33:00,
2013-05-17 08:34:00,62.2,61.3,30.05,NE,41,0.0,0.0,97,0.00,,,0.00,Wunderground v.1.15,2013-05-17 12:34:00,
2013-05-17 08:35:00,62.3,61.1,30.05,NE,41,0.0,0.0,96,0.00,,,0.00,Wunderground v.1.15,2013-05-17 12:35:00,
2013-05-17 08:37:00,62.5,61.3,30.05,NE,41,0.0,0.0,96,0.00,,,0.00,Wunderground v.1.15,2013-05-17 12:37:00,
2013-05-17 08:38:00,62.6,61.4,30.05,NE,41,0.0,0.0,96,0.00,,,0.00,Wunderground v.1.15,2013-05-17 12:38:00,
2013-05-17 08:39:00,62.7,61.2,30.05,NE,41,0.0,0.0,95,0.00,,,0.00,Wunderground v.1.15,2013-05-17 12:39:00,
2013-05-17 08:40:00,62.7,61.2,30.05,NE,41,0.0,0.0,95,0.00,,,0.00,Wunderground v.1.15,2013-05-17 12:40:00,
2013-05-17 08:42:00,62.9,61.4,30.05,NE,41,0.0,0.0,95,0.00,,,0.00,Wunderground v.1.15,2013-05-17 12:42:00,
2013-05-17 08:43:00,63.0,61.5,30.05,NE,41,0.0,0.0,95,0.00,,,0.00,Wunderground v.1.15,2013-05-17 12:43:00,
2013-05-17 08:45:00,63.2,61.7,30.05,NE,41,0.0,0.0,95,0.00,,,0.00,Wunderground v.1.15,2013-05-17 12:45:00,
2013-05-17 08:46:00,63.2,61.7,30.05,NE,41,0.0,0.0,95,0.00,,,0.00,Wunderground v.1.15,2013-05-17 12:46:00,
2013-05-17 08:47:00,63.3,61.5,30.05,NE,41,0.0,0.0,94,0.00,,,0.00,Wunderground v.1.15,2013-05-17 12:47:00,
2013-05-17 08:48:00,63.5,61.7,30.05,NE,41,0.0,0.0,94,0.00,,,0.00,Wunderground v.1.15,2013-05-17 12:48:00,
2013-05-17 08:50:00,63.6,61.8,30.05,NE,41,0.0,0.0,94,0.00,,,0.00,Wunderground v.1.15,2013-05-17 12:50:00,
2013-05-17 08:51:00,63.7,61.9,30.05,NE,41,0.0,0.0,94,0.00,,,0.00,Wunderground v.1.15,2013-05-17 12:51:00,
2013-05-17 08:52:00,63.8,61.7,30.05,NE,41,0.0,0.0,93,0.00,,,0.00,Wunderground v.1.15,2013-05-17 12:52:00,
2013-05-17 08:54:00,64.0,61.9,30.05,NE,41,0.0,0.0,93,0.00,,,0.00,Wunderground v.1.15,2013-05-17 12:54:00,
2013-05-17 08:55:00,64.1,62.0,30.05,NE,41,0.0,0.0,93,0.00,,,0.00,Wunderground v.1.15,2013-05-17 12:55:00,
2013-05-17 08:56:00,64.2,62.1,30.05,NE,41,0.0,0.0,93,0.00,,,0.00,Wunderground v.1.15,2013-05-17 12:56:00,
2013-05-17 08:57:00,64.3,62.2,30.05,NE,41,0.0,0.0,93,0.00,,,0.00,Wunderground v.1.15,2013-05-17 12:57:00,
2013-05-17 08:59:00,64.5,62.4,30.05,NE,41,0.0,0.0,93,0.00,,,0.00,Wunderground v.1.15,2013-05-17 12:59:00,
2013-05-17 09:00:00,64.7,62.3,30.05,NE,41,0.0,0.0,92,0.00,,,0.00,Wunderground v.1.15,2013-05-17 13:00:00,
2013-05-17 09:01:00,64.7,62.3,30.05,NE,41,0.0,0.0,92,0.00,,,0.00,Wunderground v.1.15,2013-05-17 13:01:00,
2013-05-17 09:03:00,64.9,62.5,30.05,NE,41,0.0,0.0,92,0.00,,,0.00,Wunderground v.1.15,2013-05-17 13:03:00,
2013-05-17 09:05:00,65.3,62.6,30.05,NE,41,0.0,0.0,91,0.00,,,0.00,Wunderground v.1.15,2013-05-17 13:05:00,
2013-05-17 09:06:00,65.4,62.7,30.05,NE,41,0.0,0.0,91,0.00,,,0.00,Wunderground v.1.15,2013-05-17 13:06:00,
2013-05-17 09:07:00,65.5,62.8,30.05,NE,41,0.0,0.0,91,0.00,,,0.00,Wunderground v.1.15,2013-05-17 13:07:00,
2013-05-17 09:08:00,65.7,63.0,30.05,NE,41,0.0,0.0,91,0.00,,,0.00,Wunderground v.1.15,2013-05-17 13:08:00,
2013-05-17 09:10:00,66.2,62.5,30.05,WNW,290,0.0,0.0,88,0.00,,,0.00,Wunderground v.1.15,2013-05-17 13:10:00,
2013-05-17 09:11:00,66.3,62.6,30.05,WNW,290,0.0,0.0,88,0.00,,,0.00,Wunderground v.1.15,2013-05-17 13:11:00,
2013-05-17 09:12:00,66.5,62.8,30.05,WNW,290,0.0,0.0,88,0.00,,,0.00,Wunderground v.1.15,2013-05-17 13:12:00,
2013-05-17 09:13:00,66.8,63.1,30.05,WNW,291,0.0,0.0,88,0.00,,,0.00,Wunderground v.1.15,2013-05-17 13:13:00,
2013-05-17 09:16:00,67.6,63.3,30.06,WNW,291,0.0,0.0,86,0.00,,,0.00,Wunderground v.1.15,2013-05-17 13:16:00,
2013-05-17 09:17:00,67.9,62.9,30.06,WNW,291,0.0,0.0,84,0.00,,,0.00,Wunderground v.1.15,2013-05-17 13:17:00,
2013-05-17 09:18:00,68.3,63.3,30.06,WNW,290,0.0,0.0,84,0.00,,,0.00,Wunderground v.1.15,2013-05-17 13:18:00,
2013-05-17 09:21:00,68.9,62.1,30.06,WNW,290,0.0,0.0,79,0.00,,,0.00,Wunderground v.1.15,2013-05-17 13:21:00,
2013-05-17 09:22:00,69.1,63.0,30.06,WNW,291,0.0,0.0,81,0.00,,,0.00,Wunderground v.1.15,2013-05-17 13:22:00,
2013-05-17 09:23:00,69.4,61.9,30.06,NW,317,0.0,0.0,77,0.00,,,0.00,Wunderground v.1.15,2013-05-17 13:23:00,
2013-05-17 09:26:00,69.7,61.8,30.06,NW,319,0.0,0.0,76,0.00,,,0.00,Wunderground v.1.15,2013-05-17 13:26:00,
2013-05-17 09:27:00,69.9,62.0,30.06,NW,319,0.0,0.0,76,0.00,,,0.00,Wunderground v.1.15,2013-05-17 13:27:00,
2013-05-17 09:29:00,70.4,62.5,30.06,NW,319,0.0,0.0,76,0.00,,,0.00,Wunderground v.1.15,2013-05-17 13:29:00,
2013-05-17 09:31:00,71.1,63.1,30.06,NW,319,0.0,0.0,76,0.00,,,0.00,Wunderground v.1.15,2013-05-17 13:31:00,
2013-05-17 09:32:00,71.4,63.4,30.06,NW,319,0.0,0.0,76,0.00,,,0.00,Wunderground v.1.15,2013-05-17 13:32:00,
2013-05-17 09:34:00,72.2,63.1,30.06,NW,319,0.0,0.0,73,0.00,,,0.00,Wunderground v.1.15,2013-05-17 13:34:00,
2013-05-17 09:36:00,72.7,62.8,30.06,West,270,0.0,1.0,71,0.00,,,0.00,Wunderground v.1.15,2013-05-17 13:36:00,
2013-05-17 09:37:00,72.9,62.5,30.06,SW,226,1.0,2.0,70,0.00,,,0.00,Wunderground v.1.15,2013-05-17 13:37:00,
2013-05-17 09:40:00,73.2,63.6,30.06,SW,225,0.0,0.0,72,0.00,,,0.00,Wunderground v.1.15,2013-05-17 13:40:00,
2013-05-17 09:41:00,73.3,64.1,30.06,SW,225,0.0,0.0,73,0.00,,,0.00,Wunderground v.1.15,2013-05-17 13:41:00,
2013-05-17 09:42:00,73.5,63.5,30.06,SW,225,0.0,0.0,71,0.00,,,0.00,Wunderground v.1.15,2013-05-17 13:42:00,
2013-05-17 09:45:00,74.1,63.7,30.06,SW,232,0.0,0.0,70,0.00,,,0.00,Wunderground v.1.15,2013-05-17 13:45:00,
2013-05-17 09:46:00,74.3,63.5,30.06,SW,232,0.0,0.0,69,0.00,,,0.00,Wunderground v.1.15,2013-05-17 13:46:00,
2013-05-17 09:47:00,74.6,63.8,30.06,SW,232,0.0,0.0,69,0.00,,,0.00,Wunderground v.1.15,2013-05-17 13:47:00,
2013-05-17 09:50:00,75.3,64.0,30.06,ENE,65,0.0,0.0,68,0.00,,,0.00,Wunderground v.1.15,2013-05-17 13:50:00,
2013-05-17 09:51:00,75.3,64.0,30.06,East,84,1.0,1.0,68,0.00,,,0.00,Wunderground v.1.15,2013-05-17 13:51:00,
2013-05-17 09:52:00,75.3,63.2,30.06,East,82,0.0,2.0,66,0.00,,,0.00,Wunderground v.1.15,2013-05-17 13:52:00,
2013-05-17 09:53:00,75.3,63.2,30.06,East,82,0.0,2.0,66,0.00,,,0.00,Wunderground v.1.15,2013-05-17 13:53:00,
2013-05-17 09:56:00,75.5,62.9,30.06,East,83,1.0,2.0,65,0.00,,,0.00,Wunderground v.1.15,2013-05-17 13:56:00,
2013-05-17 09:57:00,75.8,63.2,30.06,East,83,0.0,2.0,65,0.00,,,0.00,Wunderground v.1.15,2013-05-17 13:57:00,
2013-05-17 09:58:00,76.1,63.5,30.06,SE,142,0.0,2.0,65,0.00,,,0.00,Wunderground v.1.15,2013-05-17 13:58:00,
2013-05-17 10:01:00,76.6,64.4,30.06,SSE,153,0.0,1.0,66,0.00,,,0.00,Wunderground v.1.15,2013-05-17 14:01:00,
2013-05-17 10:02:00,76.7,63.2,30.06,SSE,153,0.0,1.0,63,0.00,,,0.00,Wunderground v.1.15,2013-05-17 14:02:00,
2013-05-17 10:03:00,76.9,64.2,30.06,WSW,239,1.0,1.0,65,0.00,,,0.00,Wunderground v.1.15,2013-05-17 14:03:00,
2013-05-17 10:04:00,77.1,63.5,30.06,WSW,239,1.0,1.0,63,0.00,,,0.00,Wunderground v.1.15,2013-05-17 14:04:00,
2013-05-17 10:06:00,77.1,64.0,30.06,WSW,239,0.0,1.0,64,0.00,,,0.00,Wunderground v.1.15,2013-05-17 14:06:00,
2013-05-17 10:07:00,77.1,63.1,30.06,WSW,239,0.0,1.0,62,0.00,,,0.00,Wunderground v.1.15,2013-05-17 14:07:00,
2013-05-17 10:08:00,77.2,63.2,30.06,WSW,239,0.0,1.0,62,0.00,,,0.00,Wunderground v.1.15,2013-05-17 14:08:00,
2013-05-17 10:09:00,77.3,63.3,30.06,WSW,239,0.0,1.0,62,0.00,,,0.00,Wunderground v.1.15,2013-05-17 14:09:00,
2013-05-17 10:12:00,77.2,64.5,30.06,WSW,238,0.0,0.0,65,0.00,,,0.00,Wunderground v.1.15,2013-05-17 14:12:00,
2013-05-17 10:13:00,77.1,63.1,30.06,WSW,239,0.0,0.0,62,0.00,,,0.00,Wunderground v.1.15,2013-05-17 14:13:00,
2013-05-17 10:14:00,77.0,63.4,30.06,WSW,239,0.0,0.0,63,0.00,,,0.00,Wunderground v.1.15,2013-05-17 14:14:00,
2013-05-17 10:15:00,76.9,62.4,30.06,WSW,239,0.0,0.0,61,0.00,,,0.00,Wunderground v.1.15,2013-05-17 14:15:00,
2013-05-17 10:17:00,76.7,62.2,30.06,WSW,239,0.0,0.0,61,0.00,,,0.00,Wunderground v.1.15,2013-05-17 14:17:00,
2013-05-17 10:18:00,76.7,63.6,30.06,NNW,336,0.0,0.0,64,0.00,,,0.00,Wunderground v.1.15,2013-05-17 14:18:00,
2013-05-17 10:19:00,76.7,62.7,30.06,North,350,0.0,0.0,62,0.00,,,0.00,Wunderground v.1.15,2013-05-17 14:19:00,
2013-05-17 10:20:00,76.6,62.6,30.06,North,354,0.0,0.0,62,0.00,,,0.00,Wunderground v.1.15,2013-05-17 14:20:00,
2013-05-17 10:22:00,76.5,62.0,30.06,North,353,0.0,0.0,61,0.00,,,0.00,Wunderground v.1.15,2013-05-17 14:22:00,
2013-05-17 10:23:00,76.5,62.5,30.06,North,353,0.0,0.0,62,0.00,,,0.00,Wunderground v.1.15,2013-05-17 14:23:00,
2013-05-17 10:24:00,76.5,63.0,30.06,North,353,0.0,0.0,63,0.00,,,0.00,Wunderground v.1.15,2013-05-17 14:24:00,
2013-05-17 10:25:00,76.6,63.1,30.06,North,352,0.0,0.0,63,0.00,,,0.00,Wunderground v.1.15,2013-05-17 14:25:00,
2013-05-17 10:27:00,76.6,63.5,30.06,North,352,0.0,0.0,64,0.00,,,0.00,Wunderground v.1.15,2013-05-17 14:27:00,
2013-05-17 10:28:00,76.5,63.4,30.06,North,352,0.0,0.0,64,0.00,,,0.00,Wunderground v.1.15,2013-05-17 14:28:00,
2013-05-17 10:29:00,76.5,63.4,30.06,North,353,0.0,0.0,64,0.00,,,0.00,Wunderground v.1.15,2013-05-17 14:29:00,
2013-05-17 10:30:00,76.4,62.9,30.06,North,353,0.0,0.0,63,0.00,,,0.00,Wunderground v.1.15,2013-05-17 14:30:00,
2013-05-17 10:32:00,76.3,63.2,30.06,North,353,0.0,0.0,64,0.00,,,0.00,Wunderground v.1.15,2013-05-17 14:32:00,
2013-05-17 10:33:00,76.3,63.7,30.06,North,352,0.0,0.0,65,0.00,,,0.00,Wunderground v.1.15,2013-05-17 14:33:00,
2013-05-17 10:34:00,76.3,63.2,30.06,North,352,0.0,0.0,64,0.00,,,0.00,Wunderground v.1.15,2013-05-17 14:34:00,
2013-05-17 10:35:00,76.3,63.2,30.06,North,353,0.0,0.0,64,0.00,,,0.00,Wunderground v.1.15,2013-05-17 14:35:00,
2013-05-17 10:38:00,76.4,63.8,30.06,North,352,0.0,0.0,65,0.00,,,0.00,Wunderground v.1.15,2013-05-17 14:38:00,
2013-05-17 10:39:00,76.4,64.2,30.06,NNW,330,0.0,0.0,66,0.00,,,0.00,Wunderground v.1.15,2013-05-17 14:39:00,
2013-05-17 10:40:00,76.5,63.4,30.06,NNW,330,0.0,0.0,64,0.00,,,0.00,Wunderground v.1.15,2013-05-17 14:40:00,
2013-05-17 10:41:00,76.5,63.0,30.06,NNW,330,0.0,0.0,63,0.00,,,0.00,Wunderground v.1.15,2013-05-17 14:41:00,
2013-05-17 10:43:00,76.5,62.5,30.06,WNW,299,0.0,0.0,62,0.00,,,0.00,Wunderground v.1.15,2013-05-17 14:43:00,
2013-05-17 10:44:00,76.5,63.4,30.06,WNW,299,0.0,0.0,64,0.00,,,0.00,Wunderground v.1.15,2013-05-17 14:44:00,
2013-05-17 10:45:00,76.5,63.0,30.06,WSW,253,0.0,0.0,63,0.00,,,0.00,Wunderground v.1.15,2013-05-17 14:45:00,
2013-05-17 10:46:00,76.4,62.9,30.06,WSW,253,0.0,0.0,63,0.00,,,0.00,Wunderground v.1.15,2013-05-17 14:46:00,
2013-05-17 10:48:00,76.7,63.6,30.06,WSW,253,0.0,0.0,64,0.00,,,0.00,Wunderground v.1.15,2013-05-17 14:48:00,
2013-05-17 10:49:00,76.7,63.6,30.06,WSW,253,0.0,0.0,64,0.00,,,0.00,Wunderground v.1.15,2013-05-17 14:49:00,
2013-05-17 10:50:00,76.9,64.2,30.06,WSW,253,0.0,0.0,65,0.00,,,0.00,Wunderground v.1.15,2013-05-17 14:50:00,
2013-05-17 10:51:00,77.0,64.3,30.06,WSW,253,0.0,0.0,65,0.00,,,0.00,Wunderground v.1.15,2013-05-17 14:51:00,
2013-05-17 10:53:00,77.5,63.0,30.06,WSW,253,0.0,0.0,61,0.00,,,0.00,Wunderground v.1.15,2013-05-17 14:53:00,
2013-05-17 10:54:00,77.5,63.0,30.06,WSW,253,0.0,0.0,61,0.00,,,0.00,Wunderground v.1.15,2013-05-17 14:54:00,
2013-05-17 10:55:00,78.0,63.5,30.06,WSW,253,0.0,0.0,61,0.00,,,0.00,Wunderground v.1.15,2013-05-17 14:55:00,
2013-05-17 10:56:00,78.1,63.6,30.06,SW,225,0.0,0.0,61,0.00,,,0.00,Wunderground v.1.15,2013-05-17 14:56:00,
2013-05-17 10:59:00,78.6,63.6,30.06,SSW,210,0.0,0.0,60,0.00,,,0.00,Wunderground v.1.15,2013-05-17 14:59:00,
2013-05-17 11:00:00,78.9,63.8,30.06,SSE,160,0.0,0.0,60,0.00,,,0.00,Wunderground v.1.15,2013-05-17 15:00:00,
2013-05-17 11:01:00,79.0,63.9,30.06,SSE,161,0.0,0.0,60,0.00,,,0.00,Wunderground v.1.15,2013-05-17 15:01:00,
2013-05-17 11:04:00,79.2,63.6,30.06,NW,324,2.0,3.0,59,0.00,,,0.00,Wunderground v.1.15,2013-05-17 15:04:00,
2013-05-17 11:05:00,79.2,63.6,30.06,NNW,328,0.0,3.0,59,0.00,,,0.00,Wunderground v.1.15,2013-05-17 15:05:00,
2013-05-17 11:06:00,79.2,63.6,30.06,NNW,328,0.0,3.0,59,0.00,,,0.00,Wunderground v.1.15,2013-05-17 15:06:00,
2013-05-17 11:09:00,79.1,63.5,30.06,West,280,0.0,3.0,59,0.00,,,0.00,Wunderground v.1.15,2013-05-17 15:09:00,
2013-05-17 11:10:00,79.2,64.6,30.06,NW,309,0.0,1.0,61,0.00,,,0.00,Wunderground v.1.15,2013-05-17 15:10:00,
2013-05-17 11:11:00,79.3,64.7,30.06,NNE,12,1.0,1.0,61,0.00,,,0.00,Wunderground v.1.15,2013-05-17 15:11:00,
2013-05-17 11:14:00,79.5,64.4,30.06,NNE,12,0.0,1.0,60,0.00,,,0.00,Wunderground v.1.15,2013-05-17 15:14:00,
2013-05-17 11:15:00,79.6,64.5,30.06,NNE,12,0.0,1.0,60,0.00,,,0.00,Wunderground v.1.15,2013-05-17 15:15:00,
2013-05-17 11:16:00,79.6,65.0,30.06,NNE,12,0.0,1.0,61,0.00,,,0.00,Wunderground v.1.15,2013-05-17 15:16:00,
2013-05-17 11:17:00,79.7,64.1,30.06,NNE,12,0.0,1.0,59,0.00,,,0.00,Wunderground v.1.15,2013-05-17 15:17:00,
2013-05-17 11:19:00,79.9,63.3,30.06,NNE,12,0.0,1.0,57,0.00,,,0.00,Wunderground v.1.15,2013-05-17 15:19:00,
2013-05-17 11:20:00,80.0,64.4,30.06,NNW,338,1.0,2.0,59,0.00,,,0.00,Wunderground v.1.15,2013-05-17 15:20:00,
2013-05-17 11:21:00,80.0,63.9,30.06,NNW,342,1.0,2.0,58,0.00,,,0.00,Wunderground v.1.15,2013-05-17 15:21:00,
2013-05-17 11:22:00,80.1,64.5,30.06,North,8,0.0,2.0,59,0.00,,,0.00,Wunderground v.1.15,2013-05-17 15:22:00,
2013-05-17 11:25:00,80.1,62.5,30.06,NNW,328,0.0,2.0,55,0.00,,,0.00,Wunderground v.1.15,2013-05-17 15:25:00,
2013-05-17 11:26:00,80.1,64.0,30.06,NNW,327,0.0,2.0,58,0.00,,,0.00,Wunderground v.1.15,2013-05-17 15:26:00,
2013-05-17 11:27:00,80.2,64.1,30.06,North,353,0.0,2.0,58,0.00,,,0.00,Wunderground v.1.15,2013-05-17 15:27:00,
2013-05-17 11:30:00,80.1,63.5,30.06,North,358,0.0,0.0,57,0.00,,,0.00,Wunderground v.1.15,2013-05-17 15:30:00,
2013-05-17 11:31:00,80.2,63.1,30.06,North,359,0.0,0.0,56,0.00,,,0.00,Wunderground v.1.15,2013-05-17 15:31:00,
2013-05-17 11:32:00,80.1,63.5,30.06,North,359,0.0,0.0,57,0.00,,,0.00,Wunderground v.1.15,2013-05-17 15:32:00,
2013-05-17 11:35:00,80.5,64.4,30.06,WNW,288,1.0,1.0,58,0.00,,,0.00,Wunderground v.1.15,2013-05-17 15:35:00,
2013-05-17 11:36:00,80.6,64.5,30.06,NW,318,1.0,1.0,58,0.00,,,0.00,Wunderground v.1.15,2013-05-17 15:36:00,
2013-05-17 11:37:00,80.6,64.0,30.06,West,271,0.0,1.0,57,0.00,,,0.00,Wunderground v.1.15,2013-05-17 15:37:00,
2013-05-17 11:40:00,80.7,63.5,30.06,NNE,32,0.0,0.0,56,0.00,,,0.00,Wunderground v.1.15,2013-05-17 15:40:00,
2013-05-17 11:41:00,80.7,63.5,30.06,SW,232,1.0,2.0,56,0.00,,,0.00,Wunderground v.1.15,2013-05-17 15:41:00,
2013-05-17 11:42:00,80.7,65.0,30.06,WNW,293,1.0,2.0,59,0.00,,,0.00,Wunderground v.1.15,2013-05-17 15:42:00,
2013-05-17 11:43:00,80.6,64.9,30.06,WNW,300,1.0,2.0,59,0.00,,,0.00,Wunderground v.1.15,2013-05-17 15:43:00,
2013-05-17 11:45:00,80.5,63.4,30.06,WNW,300,0.0,2.0,56,0.00,,,0.00,Wunderground v.1.15,2013-05-17 15:45:00,
2013-05-17 11:46:00,80.5,65.3,30.06,South,181,0.0,2.0,60,0.00,,,0.00,Wunderground v.1.15,2013-05-17 15:46:00,
2013-05-17 11:47:00,80.5,65.8,30.06,South,181,1.0,2.0,61,0.00,,,0.00,Wunderground v.1.15,2013-05-17 15:47:00,
2013-05-17 11:48:00,80.6,64.5,30.06,WNW,288,1.0,2.0,58,0.00,,,0.00,Wunderground v.1.15,2013-05-17 15:48:00,
2013-05-17 11:50:00,80.6,64.5,30.06,WNW,294,0.0,1.0,58,0.00,,,0.00,Wunderground v.1.15,2013-05-17 15:50:00,
2013-05-17 11:51:00,80.6,64.5,30.06,NW,318,0.0,1.0,58,0.00,,,0.00,Wunderground v.1.15,2013-05-17 15:51:00,
2013-05-17 11:52:00,80.6,63.5,30.06,NNE,20,0.0,1.0,56,0.00,,,0.00,Wunderground v.1.15,2013-05-17 15:52:00,
2013-05-17 11:53:00,80.8,63.1,30.06,NE,47,0.0,1.0,55,0.00,,,0.00,Wunderground v.1.15,2013-05-17 15:53:00,
2013-05-17 11:55:00,80.9,63.7,30.06,WNW,297,1.0,2.0,56,0.00,,,0.00,Wunderground v.1.15,2013-05-17 15:55:00,
2013-05-17 11:56:00,80.9,64.7,30.06,WNW,296,0.0,2.0,58,0.00,,,0.00,Wunderground v.1.15,2013-05-17 15:56:00,
2013-05-17 11:57:00,80.9,64.2,30.06,WNW,296,0.0,2.0,57,0.00,,,0.00,Wunderground v.1.15,2013-05-17 15:57:00,
2013-05-17 11:58:00,81.0,64.3,30.06,WNW,296,0.0,2.0,57,0.00,,,0.00,Wunderground v.1.15,2013-05-17 15:58:00,
2013-05-17 12:01:00,81.2,64.0,30.06,NW,307,2.0,2.0,56,0.00,,,0.00,Wunderground v.1.15,2013-05-17 16:01:00,
2013-05-17 12:02:00,81.3,64.1,30.06,NW,308,1.0,2.0,56,0.00,,,0.00,Wunderground v.1.15,2013-05-17 16:02:00,
2013-05-17 12:04:00,81.4,63.2,30.06,WNW,297,1.0,2.0,54,0.00,,,0.00,Wunderground v.1.15,2013-05-17 16:04:00,
2013-05-17 12:06:00,81.6,63.9,30.06,NE,46,0.0,2.0,55,0.00,,,0.00,Wunderground v.1.15,2013-05-17 16:06:00,
2013-05-17 12:07:00,81.7,62.9,30.06,NE,49,0.0,2.0,53,0.00,,,0.00,Wunderground v.1.15,2013-05-17 16:07:00,
2013-05-17 12:09:00,82.0,62.6,30.06,NE,48,0.0,2.0,52,0.00,,,0.00,Wunderground v.1.15,2013-05-17 16:09:00,
2013-05-17 12:11:00,82.2,61.7,30.06,NW,316,2.0,2.0,50,0.00,,,0.00,Wunderground v.1.15,2013-05-17 16:11:00,
2013-05-17 12:12:00,82.3,64.0,30.06,NW,324,1.0,2.0,54,0.00,,,0.00,Wunderground v.1.15,2013-05-17 16:12:00,
2013-05-17 12:15:00,82.3,63.5,30.05,NE,56,0.0,2.0,53,0.00,,,0.00,Wunderground v.1.15,2013-05-17 16:15:00,
2013-05-17 12:16:00,82.4,64.6,30.05,ENE,58,1.0,2.0,55,0.00,,,0.00,Wunderground v.1.15,2013-05-17 16:16:00,
2013-05-17 12:17:00,82.3,64.0,30.05,ENE,58,2.0,2.0,54,0.00,,,0.00,Wunderground v.1.15,2013-05-17 16:17:00,
2013-05-17 12:18:00,82.3,62.9,30.05,ENE,58,0.0,2.0,52,0.00,,,0.00,Wunderground v.1.15,2013-05-17 16:18:00,
2013-05-17 12:20:00,82.2,63.4,30.05,WNW,290,0.0,1.0,53,0.00,,,0.00,Wunderground v.1.15,2013-05-17 16:20:00,
2013-05-17 12:21:00,82.2,62.3,30.05,WNW,291,0.0,1.0,51,0.00,,,0.00,Wunderground v.1.15,2013-05-17 16:21:00,
2013-05-17 12:22:00,82.3,62.9,30.05,North,7,0.0,1.0,52,0.00,,,0.00,Wunderground v.1.15,2013-05-17 16:22:00,
2013-05-17 12:23:00,82.4,63.0,30.05,ENE,63,0.0,1.0,52,0.00,,,0.00,Wunderground v.1.15,2013-05-17 16:23:00,
2013-05-17 12:25:00,82.6,63.7,30.05,ENE,63,0.0,1.0,53,0.00,,,0.00,Wunderground v.1.15,2013-05-17 16:25:00,
2013-05-17 12:26:00,82.7,63.8,30.05,ENE,63,0.0,1.0,53,0.00,,,0.00,Wunderground v.1.15,2013-05-17 16:26:00,
2013-05-17 12:27:00,82.7,62.7,30.05,SSW,195,1.0,2.0,51,0.00,,,0.00,Wunderground v.1.15,2013-05-17 16:27:00,
2013-05-17 12:28:00,82.7,62.7,30.05,South,191,0.0,2.0,51,0.00,,,0.00,Wunderground v.1.15,2013-05-17 16:28:00,
2013-05-17 12:30:00,83.0,64.1,30.05,ENE,69,2.0,2.0,53,0.00,,,0.00,Wunderground v.1.15,2013-05-17 16:30:00,
2013-05-17 12:31:00,83.0,64.6,30.05,ENE,69,1.0,2.0,54,0.00,,,0.00,Wunderground v.1.15,2013-05-17 16:31:00,
2013-05-17 12:32:00,83.1,66.3,30.05,ENE,69,0.0,2.0,57,0.00,,,0.00,Wunderground v.1.15,2013-05-17 16:32:00,
2013-05-17 12:33:00,83.1,65.3,30.05,NE,46,1.0,3.0,55,0.00,,,0.00,Wunderground v.1.15,2013-05-17 16:33:00,
2013-05-17 12:35:00,83.2,65.9,30.05,ENE,76,0.0,3.0,56,0.00,,,0.00,Wunderground v.1.15,2013-05-17 16:35:00,
2013-05-17 12:36:00,83.3,62.7,30.05,ENE,77,0.0,3.0,50,0.00,,,0.00,Wunderground v.1.15,2013-05-17 16:36:00,
2013-05-17 12:37:00,83.5,64.6,30.05,ENE,77,0.0,3.0,53,0.00,,,0.00,Wunderground v.1.15,2013-05-17 16:37:00,
2013-05-17 12:38:00,83.7,63.7,30.05,ENE,77,0.0,3.0,51,0.00,,,0.00,Wunderground v.1.15,2013-05-17 16:38:00,
2013-05-17 12:41:00,83.7,61.9,30.05,NW,319,2.0,3.0,48,0.00,,,0.00,Wunderground v.1.15,2013-05-17 16:41:00,
2013-05-17 12:43:00,83.3,64.9,30.05,NNW,345,0.0,3.0,54,0.00,,,0.00,Wunderground v.1.15,2013-05-17 16:43:00,
2013-05-17 12:44:00,83.3,63.8,30.05,NNE,30,1.0,3.0,52,0.00,,,0.00,Wunderground v.1.15,2013-05-17 16:44:00,
2013-05-17 12:46:00,83.2,62.6,30.05,SE,141,1.0,3.0,50,0.00,,,0.00,Wunderground v.1.15,2013-05-17 16:46:00,
2013-05-17 12:48:00,83.3,63.8,30.05,SE,139,0.0,3.0,52,0.00,,,0.00,Wunderground v.1.15,2013-05-17 16:48:00,
2013-05-17 12:49:00,83.5,63.5,30.05,SE,141,0.0,3.0,51,0.00,,,0.00,Wunderground v.1.15,2013-05-17 16:49:00,
2013-05-17 12:51:00,83.7,65.3,30.05,North,358,2.0,3.0,54,0.00,,,0.00,Wunderground v.1.15,2013-05-17 16:51:00,
2013-05-17 12:53:00,83.8,63.2,30.05,NW,315,0.0,3.0,50,0.00,,,0.00,Wunderground v.1.15,2013-05-17 16:53:00,
2013-05-17 12:54:00,83.8,63.2,30.05,NW,314,0.0,3.0,50,0.00,,,0.00,Wunderground v.1.15,2013-05-17 16:54:00,
2013-05-17 12:55:00,83.8,63.7,30.05,NW,314,0.0,3.0,51,0.00,,,0.00,Wunderground v.1.15,2013-05-17 16:55:00,
2013-05-17 12:56:00,83.9,63.8,30.05,East,82,1.0,3.0,51,0.00,,,0.00,Wunderground v.1.15,2013-05-17 16:56:00,
2013-05-17 12:59:00,83.9,63.3,30.04,East,80,1.0,3.0,50,0.00,,,0.00,Wunderground v.1.15,2013-05-17 16:59:00,
2013-05-17 13:00:00,84.0,65.0,30.04,East,79,0.0,1.0,53,0.00,,,0.00,Wunderground v.1.15,2013-05-17 17:00:00,
2013-05-17 13:01:00,84.0,65.0,30.04,NE,37,1.0,1.0,53,0.00,,,0.00,Wunderground v.1.15,2013-05-17 17:01:00,
2013-05-17 13:04:00,84.2,63.5,30.04,NE,36,0.0,1.0,50,0.00,,,0.00,Wunderground v.1.15,2013-05-17 17:04:00,
2013-05-17 13:05:00,84.2,62.4,30.04,SW,215,1.0,2.0,48,0.00,,,0.00,Wunderground v.1.15,2013-05-17 17:05:00,
2013-05-17 13:06:00,84.4,63.7,30.04,SW,215,0.0,2.0,50,0.00,,,0.00,Wunderground v.1.15,2013-05-17 17:06:00,
2013-05-17 13:07:00,84.4,63.7,30.04,SW,214,0.0,2.0,50,0.00,,,0.00,Wunderground v.1.15,2013-05-17 17:07:00,
2013-05-17 13:09:00,84.7,64.0,30.04,ENE,77,1.0,2.0,50,0.00,,,0.00,Wunderground v.1.15,2013-05-17 17:09:00,
2013-05-17 13:10:00,84.7,62.8,30.04,ENE,77,1.0,1.0,48,0.00,,,0.00,Wunderground v.1.15,2013-05-17 17:10:00,
2013-05-17 13:12:00,84.6,63.3,30.04,WSW,238,1.0,2.0,49,0.00,,,0.00,Wunderground v.1.15,2013-05-17 17:12:00,
2013-05-17 13:15:00,84.5,63.8,30.04,West,270,0.0,2.0,50,0.00,,,0.00,Wunderground v.1.15,2013-05-17 17:15:00,
2013-05-17 13:17:00,84.6,63.9,30.04,NNE,25,0.0,2.0,50,0.00,,,0.00,Wunderground v.1.15,2013-05-17 17:17:00,
2013-05-17 13:20:00,84.7,62.8,30.04,NW,321,0.0,1.0,48,0.00,,,0.00,Wunderground v.1.15,2013-05-17 17:20:00,
2013-05-17 13:22:00,84.7,65.1,30.03,West,278,2.0,2.0,52,0.00,,,0.00,Wunderground v.1.15,2013-05-17 17:22:00,
2013-05-17 13:23:00,84.7,64.0,30.03,West,264,1.0,2.0,50,0.00,,,0.00,Wunderground v.1.15,2013-05-17 17:23:00,
2013-05-17 13:25:00,84.8,65.2,30.03,West,264,1.0,2.0,52,0.00,,,0.00,Wunderground v.1.15,2013-05-17 17:25:00,
2013-05-17 13:26:00,84.8,65.2,30.03,West,264,0.0,2.0,52,0.00,,,0.00,Wunderground v.1.15,2013-05-17 17:26:00,
2013-05-17 13:27:00,84.9,65.9,30.03,NNE,27,1.0,2.0,53,0.00,,,0.00,Wunderground v.1.15,2013-05-17 17:27:00,
2013-05-17 13:28:00,85.0,63.7,30.03,NNW,330,4.0,5.0,49,0.00,,,0.00,Wunderground v.1.15,2013-05-17 17:28:00,
2013-05-17 13:30:00,84.7,62.8,30.03,NW,314,1.0,1.0,48,0.00,,,0.00,Wunderground v.1.15,2013-05-17 17:30:00,
2013-05-17 13:31:00,84.7,62.8,30.03,WNW,296,1.0,1.0,48,0.00,,,0.00,Wunderground v.1.15,2013-05-17 17:31:00,
2013-05-17 13:32:00,84.5,62.1,30.03,SW,227,3.0,4.0,47,0.00,,,0.00,Wunderground v.1.15,2013-05-17 17:32:00,
2013-05-17 13:34:00,84.2,64.1,30.03,NE,44,1.0,4.0,51,0.00,,,0.00,Wunderground v.1.15,2013-05-17 17:34:00,
2013-05-17 13:36:00,84.4,64.3,30.03,NE,50,2.0,4.0,51,0.00,,,0.00,Wunderground v.1.15,2013-05-17 17:36:00,
2013-05-17 13:37:00,84.4,65.9,30.03,East,79,0.0,4.0,54,0.00,,,0.00,Wunderground v.1.15,2013-05-17 17:37:00,
2013-05-17 13:39:00,84.5,63.2,30.03,WNW,283,2.0,4.0,49,0.00,,,0.00,Wunderground v.1.15,2013-05-17 17:39:00,
2013-05-17 13:41:00,84.4,63.2,30.03,WNW,294,0.0,2.0,49,0.00,,,0.00,Wunderground v.1.15,2013-05-17 17:41:00,
2013-05-17 13:42:00,84.3,64.2,30.03,NW,318,2.0,4.0,51,0.00,,,0.00,Wunderground v.1.15,2013-05-17 17:42:00,
2013-05-17 13:44:00,84.4,64.9,30.03,West,277,2.0,4.0,52,0.00,,,0.00,Wunderground v.1.15,2013-05-17 17:44:00,
2013-05-17 13:46:00,84.5,64.9,30.03,NNW,327,0.0,4.0,52,0.00,,,0.00,Wunderground v.1.15,2013-05-17 17:46:00,
2013-05-17 13:48:00,84.6,63.9,30.03,NE,56,2.0,4.0,50,0.00,,,0.00,Wunderground v.1.15,2013-05-17 17:48:00,
2013-05-17 13:49:00,84.6,64.5,30.03,ENE,68,1.0,4.0,51,0.00,,,0.00,Wunderground v.1.15,2013-05-17 17:49:00,
2013-05-17 13:51:00,84.6,62.1,30.03,East,82,1.0,2.0,47,0.00,,,0.00,Wunderground v.1.15,2013-05-17 17:51:00,
2013-05-17 13:53:00,84.7,62.8,30.03,NNW,345,1.0,2.0,48,0.00,,,0.00,Wunderground v.1.15,2013-05-17 17:53:00,
2013-05-17 13:55:00,84.8,62.9,30.03,ENE,73,0.0,2.0,48,0.00,,,0.00,Wunderground v.1.15,2013-05-17 17:55:00,
2013-05-17 13:56:00,84.9,64.8,30.03,ENE,77,2.0,2.0,51,0.00,,,0.00,Wunderground v.1.15,2013-05-17 17:56:00,
2013-05-17 13:59:00,85.1,63.8,30.03,NE,43,0.0,2.0,49,0.00,,,0.00,Wunderground v.1.15,2013-05-17 17:59:00,
2013-05-17 14:00:00,85.2,63.9,30.03,WSW,257,1.0,1.0,49,0.00,,,0.00,Wunderground v.1.15,2013-05-17 18:00:00,
2013-05-17 14:01:00,85.3,63.4,30.03,WSW,257,0.0,1.0,48,0.00,,,0.00,Wunderground v.1.15,2013-05-17 18:01:00,
2013-05-17 14:05:00,85.3,61.6,30.03,WNW,285,1.0,5.0,45,0.00,,,0.00,Wunderground v.1.15,2013-05-17 18:05:00,
2013-05-17 14:06:00,85.1,61.4,30.03,WNW,283,3.0,5.0,45,0.00,,,0.00,Wunderground v.1.15,2013-05-17 18:06:00,
2013-05-17 14:07:00,85.0,61.3,30.03,WNW,285,0.0,5.0,45,0.00,,,0.00,Wunderground v.1.15,2013-05-17 18:07:00,
2013-05-17 14:10:00,84.7,62.8,30.03,WSW,256,1.0,2.0,48,0.00,,,0.00,Wunderground v.1.15,2013-05-17 18:10:00,
2013-05-17 14:11:00,84.8,62.9,30.03,WSW,256,0.0,2.0,48,0.00,,,0.00,Wunderground v.1.15,2013-05-17 18:11:00,
2013-05-17 14:12:00,84.9,63.0,30.03,WSW,255,0.0,2.0,48,0.00,,,0.00,Wunderground v.1.15,2013-05-17 18:12:00,
2013-05-17 14:15:00,85.2,64.5,30.03,ENE,61,1.0,3.0,50,0.00,,,0.00,Wunderground v.1.15,2013-05-17 18:15:00,
2013-05-17 14:16:00,85.3,64.6,30.03,ENE,61,1.0,3.0,50,0.00,,,0.00,Wunderground v.1.15,2013-05-17 18:16:00,
2013-05-17 14:17:00,85.4,64.6,30.03,NW,322,2.0,3.0,50,0.00,,,0.00,Wunderground v.1.15,2013-05-17 18:17:00,
2013-05-17 14:20:00,85.6,66.0,30.02,East,82,1.0,1.0,52,0.00,,,0.00,Wunderground v.1.15,2013-05-17 18:20:00,
2013-05-17 14:21:00,85.6,66.0,30.02,East,82,0.0,1.0,52,0.00,,,0.00,Wunderground v.1.15,2013-05-17 18:21:00,
2013-05-17 14:22:00,85.7,63.1,30.02,East,82,0.0,1.0,47,0.00,,,0.00,Wunderground v.1.15,2013-05-17 18:22:00,
2013-05-17 14:23:00,85.8,63.8,30.02,East,82,0.0,1.0,48,0.00,,,0.00,Wunderground v.1.15,2013-05-17 18:23:00,
2013-05-17 14:25:00,86.0,64.0,30.02,WSW,240,1.0,2.0,48,0.00,,,0.00,Wunderground v.1.15,2013-05-17 18:25:00,
2013-05-17 14:26:00,86.0,60.9,30.02,WSW,256,1.0,2.0,43,0.00,,,0.00,Wunderground v.1.15,2013-05-17 18:26:00,
2013-05-17 14:27:00,86.0,62.2,30.02,SSW,211,1.0,2.0,45,0.00,,,0.00,Wunderground v.1.15,2013-05-17 18:27:00,
2013-05-17 14:28:00,86.0,62.8,30.02,SSW,211,1.0,2.0,46,0.00,,,0.00,Wunderground v.1.15,2013-05-17 18:28:00,
2013-05-17 14:30:00,85.6,61.8,30.02,West,264,0.0,1.0,45,0.00,,,0.00,Wunderground v.1.15,2013-05-17 18:30:00,
2013-05-17 14:31:00,85.6,63.7,30.02,SW,217,1.0,2.0,48,0.00,,,0.00,Wunderground v.1.15,2013-05-17 18:31:00,
2013-05-17 14:33:00,85.6,64.2,30.02,SW,217,0.0,2.0,49,0.00,,,0.00,Wunderground v.1.15,2013-05-17 18:33:00,
2013-05-17 14:35:00,85.8,62.6,30.02,ENE,58,1.0,3.0,46,0.00,,,0.00,Wunderground v.1.15,2013-05-17 18:35:00,
2013-05-17 14:37:00,85.9,62.1,30.02,SW,232,1.0,3.0,45,0.00,,,0.00,Wunderground v.1.15,2013-05-17 18:37:00,
2013-05-17 14:38:00,85.9,63.3,30.02,NNE,23,1.0,3.0,47,0.00,,,0.00,Wunderground v.1.15,2013-05-17 18:38:00,
2013-05-17 14:41:00,85.9,63.3,30.02,NNE,33,1.0,2.0,47,0.00,,,0.00,Wunderground v.1.15,2013-05-17 18:41:00,
2013-05-17 14:42:00,85.9,63.3,30.02,NNE,33,0.0,2.0,47,0.00,,,0.00,Wunderground v.1.15,2013-05-17 18:42:00,
2013-05-17 14:43:00,85.9,64.5,30.02,SSW,207,0.0,3.0,49,0.00,,,0.00,Wunderground v.1.15,2013-05-17 18:43:00,
2013-05-17 14:44:00,86.0,64.6,30.02,SSW,207,0.0,3.0,49,0.00,,,0.00,Wunderground v.1.15,2013-05-17 18:44:00,
2013-05-17 14:47:00,86.1,63.5,30.02,SSW,212,0.0,3.0,47,0.00,,,0.00,Wunderground v.1.15,2013-05-17 18:47:00,
2013-05-17 14:49:00,86.3,63.7,30.02,SSE,153,0.0,3.0,47,0.00,,,0.00,Wunderground v.1.15,2013-05-17 18:49:00,
2013-05-17 14:52:00,86.5,63.9,30.02,ENE,67,2.0,2.0,47,0.00,,,0.00,Wunderground v.1.15,2013-05-17 18:52:00,
2013-05-17 14:54:00,86.6,61.4,30.02,NNE,22,2.0,2.0,43,0.00,,,0.00,Wunderground v.1.15,2013-05-17 18:54:00,
2013-05-17 14:57:00,86.1,64.1,30.02,ENE,61,1.0,2.0,48,0.00,,,0.00,Wunderground v.1.15,2013-05-17 18:57:00,
2013-05-17 14:59:00,85.9,63.3,30.02,ENE,61,1.0,2.0,47,0.00,,,0.00,Wunderground v.1.15,2013-05-17 18:59:00,
2013-05-17 15:03:00,85.3,62.8,30.02,West,261,0.0,1.0,47,0.00,,,0.00,Wunderground v.1.15,2013-05-17 19:03:00,
2013-05-17 15:04:00,85.1,62.0,30.02,NW,315,1.0,2.0,46,0.00,,,0.00,Wunderground v.1.15,2013-05-17 19:04:00,
2013-05-17 15:08:00,84.5,62.1,30.02,NNW,336,0.0,2.0,47,0.00,,,0.00,Wunderground v.1.15,2013-05-17 19:08:00,
2013-05-17 15:09:00,84.5,63.8,30.02,NNW,336,0.0,2.0,50,0.00,,,0.00,Wunderground v.1.15,2013-05-17 19:09:00,
2013-05-17 15:10:00,84.5,63.2,30.02,NNW,336,0.0,0.0,49,0.00,,,0.00,Wunderground v.1.15,2013-05-17 19:10:00,
2013-05-17 15:13:00,84.5,63.8,30.01,North,360,1.0,1.0,50,0.00,,,0.00,Wunderground v.1.15,2013-05-17 19:13:00,
2013-05-17 15:15:00,84.6,62.1,30.01,NNW,339,0.0,3.0,47,0.00,,,0.00,Wunderground v.1.15,2013-05-17 19:15:00,
2013-05-17 15:18:00,84.8,62.3,30.01,SSW,194,0.0,3.0,47,0.00,,,0.00,Wunderground v.1.15,2013-05-17 19:18:00,
2013-05-17 15:19:00,84.7,62.2,30.01,SW,232,2.0,3.0,47,0.00,,,0.00,Wunderground v.1.15,2013-05-17 19:19:00,
2013-05-17 15:20:00,84.7,62.2,30.01,WSW,253,1.0,2.0,47,0.00,,,0.00,Wunderground v.1.15,2013-05-17 19:20:00,
2013-05-17 15:23:00,84.8,63.5,30.01,WNW,285,0.0,2.0,49,0.00,,,0.00,Wunderground v.1.15,2013-05-17 19:23:00,
2013-05-17 15:24:00,84.9,64.8,30.01,SSW,204,1.0,2.0,51,0.00,,,0.00,Wunderground v.1.15,2013-05-17 19:24:00,
2013-05-17 15:25:00,85.0,63.7,30.01,NNW,330,0.0,2.0,49,0.00,,,0.00,Wunderground v.1.15,2013-05-17 19:25:00,
2013-05-17 15:26:00,85.0,63.7,30.01,NNW,330,0.0,2.0,49,0.00,,,0.00,Wunderground v.1.15,2013-05-17 19:26:00,
2013-05-17 15:28:00,85.2,63.3,30.01,East,93,0.0,2.0,48,0.00,,,0.00,Wunderground v.1.15,2013-05-17 19:28:00,
2013-05-17 15:29:00,85.3,63.4,30.01,East,93,0.0,2.0,48,0.00,,,0.00,Wunderground v.1.15,2013-05-17 19:29:00,
2013-05-17 15:30:00,85.4,63.5,30.01,East,87,1.0,2.0,48,0.00,,,0.00,Wunderground v.1.15,2013-05-17 19:30:00,
2013-05-17 15:31:00,85.4,63.5,30.01,East,82,2.0,2.0,48,0.00,,,0.00,Wunderground v.1.15,2013-05-17 19:31:00,
2013-05-17 15:33:00,85.5,63.0,30.01,NW,325,0.0,2.0,47,0.00,,,0.00,Wunderground v.1.15,2013-05-17 19:33:00,
2013-05-17 15:34:00,85.5,63.0,30.01,NW,325,0.0,2.0,47,0.00,,,0.00,Wunderground v.1.15,2013-05-17 19:34:00,
2013-05-17 15:35:00,85.5,63.0,30.01,NW,325,0.0,2.0,47,0.00,,,0.00,Wunderground v.1.15,2013-05-17 19:35:00,
2013-05-17 15:36:00,85.5,63.0,30.01,NW,324,0.0,2.0,47,0.00,,,0.00,Wunderground v.1.15,2013-05-17 19:36:00,
2013-05-17 15:39:00,85.5,62.4,30.01,WSW,248,0.0,2.0,46,0.00,,,0.00,Wunderground v.1.15,2013-05-17 19:39:00,
2013-05-17 15:40:00,85.5,65.3,30.00,WSW,247,0.0,0.0,51,0.00,,,0.00,Wunderground v.1.15,2013-05-17 19:40:00,
2013-05-17 15:41:00,85.5,65.3,30.00,WSW,238,2.0,2.0,51,0.00,,,0.00,Wunderground v.1.15,2013-05-17 19:41:00,
2013-05-17 15:44:00,85.4,65.2,30.00,West,261,1.0,2.0,51,0.00,,,0.00,Wunderground v.1.15,2013-05-17 19:44:00,
2013-05-17 15:45:00,85.4,65.2,30.00,West,262,0.0,2.0,51,0.00,,,0.00,Wunderground v.1.15,2013-05-17 19:45:00,
2013-05-17 15:46:00,85.5,65.3,30.00,SW,225,0.0,2.0,51,0.00,,,0.00,Wunderground v.1.15,2013-05-17 19:46:00,
2013-05-17 15:50:00,85.6,64.8,30.00,SW,229,2.0,2.0,50,0.00,,,0.00,Wunderground v.1.15,2013-05-17 19:50:00,
2013-05-17 15:51:00,85.7,61.9,30.00,WSW,256,1.0,2.0,45,0.00,,,0.00,Wunderground v.1.15,2013-05-17 19:51:00,
2013-05-17 15:52:00,85.7,61.9,30.00,SSW,204,1.0,2.0,45,0.00,,,0.00,Wunderground v.1.15,2013-05-17 19:52:00,
2013-05-17 15:55:00,85.8,61.4,30.00,WSW,242,1.0,2.0,44,0.00,,,0.00,Wunderground v.1.15,2013-05-17 19:55:00,
2013-05-17 15:56:00,85.9,62.1,30.00,WSW,242,1.0,2.0,45,0.00,,,0.00,Wunderground v.1.15,2013-05-17 19:56:00,
2013-05-17 15:57:00,85.9,62.7,30.00,East,84,1.0,2.0,46,0.00,,,0.00,Wunderground v.1.15,2013-05-17 19:57:00,
2013-05-17 16:00:00,85.8,63.2,30.00,West,281,3.0,3.0,47,0.00,,,0.00,Wunderground v.1.15,2013-05-17 20:00:00,
2013-05-17 16:01:00,85.9,63.3,30.00,WSW,250,1.0,3.0,47,0.00,,,0.00,Wunderground v.1.15,2013-05-17 20:01:00,
2013-05-17 16:02:00,86.0,63.4,30.00,ESE,104,1.0,3.0,47,0.00,,,0.00,Wunderground v.1.15,2013-05-17 20:02:00,
2013-05-17 16:05:00,86.3,64.3,30.00,ENE,65,0.0,3.0,48,0.00,,,0.00,Wunderground v.1.15,2013-05-17 20:05:00,
2013-05-17 16:06:00,86.3,63.7,30.00,ENE,65,0.0,3.0,47,0.00,,,0.00,Wunderground v.1.15,2013-05-17 20:06:00,
2013-05-17 16:07:00,86.4,63.8,30.00,ENE,65,1.0,3.0,47,0.00,,,0.00,Wunderground v.1.15,2013-05-17 20:07:00,
2013-05-17 16:10:00,86.8,62.9,30.00,WSW,245,3.0,3.0,45,0.00,,,0.00,Wunderground v.1.15,2013-05-17 20:10:00,
2013-05-17 16:11:00,86.8,61.6,30.00,WSW,250,2.0,4.0,43,0.00,,,0.00,Wunderground v.1.15,2013-05-17 20:11:00,
2013-05-17 16:12:00,86.8,61.6,30.00,SW,222,2.0,4.0,43,0.00,,,0.00,Wunderground v.1.15,2013-05-17 20:12:00,
2013-05-17 16:13:00,86.6,61.4,30.00,SW,222,0.0,4.0,43,0.00,,,0.00,Wunderground v.1.15,2013-05-17 20:13:00,
2013-05-17 16:15:00,86.4,63.2,30.00,SSW,210,0.0,4.0,46,0.00,,,0.00,Wunderground v.1.15,2013-05-17 20:15:00,
2013-05-17 16:16:00,86.3,62.5,30.00,SSW,210,0.0,4.0,45,0.00,,,0.00,Wunderground v.1.15,2013-05-17 20:16:00,
2013-05-17 16:17:00,86.3,62.5,30.00,SSW,210,0.0,4.0,45,0.00,,,0.00,Wunderground v.1.15,2013-05-17 20:17:00,
2013-05-17 16:18:00,86.2,64.2,30.00,SE,128,0.0,4.0,48,0.00,,,0.00,Wunderground v.1.15,2013-05-17 20:18:00,
2013-05-17 16:20:00,85.8,63.2,30.00,East,90,2.0,2.0,47,0.00,,,0.00,Wunderground v.1.15,2013-05-17 20:20:00,
2013-05-17 16:21:00,85.7,64.9,30.00,SE,145,0.0,2.0,50,0.00,,,0.00,Wunderground v.1.15,2013-05-17 20:21:00,
2013-05-17 16:22:00,85.6,64.8,30.00,SE,145,0.0,2.0,50,0.00,,,0.00,Wunderground v.1.15,2013-05-17 20:22:00,
2013-05-17 16:23:00,85.4,64.1,30.00,SE,145,0.0,2.0,49,0.00,,,0.00,Wunderground v.1.15,2013-05-17 20:23:00,
2013-05-17 16:24:00,85.3,64.0,30.00,SE,145,0.0,2.0,49,0.00,,,0.00,Wunderground v.1.15,2013-05-17 20:24:00,
2013-05-17 16:26:00,85.2,63.9,30.00,SE,145,0.0,2.0,49,0.00,,,0.00,Wunderground v.1.15,2013-05-17 20:26:00,
2013-05-17 16:27:00,85.1,63.8,29.99,SE,145,0.0,2.0,49,0.00,,,0.00,Wunderground v.1.15,2013-05-17 20:27:00,
2013-05-17 16:29:00,85.2,66.1,29.99,SE,146,0.0,2.0,53,0.00,,,0.00,Wunderground v.1.15,2013-05-17 20:29:00,
2013-05-17 16:31:00,85.1,63.8,29.99,SE,146,0.0,1.0,49,0.00,,,0.00,Wunderground v.1.15,2013-05-17 20:31:00,
2013-05-17 16:32:00,85.1,65.5,29.99,SE,145,1.0,1.0,52,0.00,,,0.00,Wunderground v.1.15,2013-05-17 20:32:00,
2013-05-17 16:34:00,84.9,65.3,29.99,WSW,250,1.0,1.0,52,0.00,,,0.00,Wunderground v.1.15,2013-05-17 20:34:00,
2013-05-17 16:36:00,84.8,64.1,29.99,SSW,200,0.0,2.0,50,0.00,,,0.00,Wunderground v.1.15,2013-05-17 20:36:00,
2013-05-17 16:37:00,84.8,64.7,29.99,SSW,200,0.0,2.0,51,0.00,,,0.00,Wunderground v.1.15,2013-05-17 20:37:00,
2013-05-17 16:39:00,84.6,63.3,29.99,SW,226,0.0,4.0,49,0.00,,,0.00,Wunderground v.1.15,2013-05-17 20:39:00,
2013-05-17 16:41:00,84.6,63.3,29.99,SW,227,1.0,1.0,49,0.00,,,0.00,Wunderground v.1.15,2013-05-17 20:41:00,
2013-05-17 16:42:00,84.5,64.4,29.99,SSW,213,2.0,2.0,51,0.00,,,0.00,Wunderground v.1.15,2013-05-17 20:42:00,
2013-05-17 16:44:00,84.3,64.8,29.99,SSW,211,0.0,3.0,52,0.00,,,0.00,Wunderground v.1.15,2013-05-17 20:44:00,
2013-05-17 16:45:00,84.3,64.8,29.99,SSW,211,0.0,3.0,52,0.00,,,0.00,Wunderground v.1.15,2013-05-17 20:45:00,
2013-05-17 16:46:00,84.3,65.8,29.99,SSW,211,0.0,3.0,54,0.00,,,0.00,Wunderground v.1.15,2013-05-17 20:46:00,
2013-05-17 16:47:00,84.3,65.3,29.99,SE,128,0.0,3.0,53,0.00,,,0.00,Wunderground v.1.15,2013-05-17 20:47:00,
2013-05-17 16:50:00,84.3,64.8,29.99,South,170,0.0,1.0,52,0.00,,,0.00,Wunderground v.1.15,2013-05-17 20:50:00,
2013-05-17 16:51:00,84.4,64.9,29.99,SE,125,1.0,1.0,52,0.00,,,0.00,Wunderground v.1.15,2013-05-17 20:51:00,
2013-05-17 16:52:00,84.4,64.9,29.99,ENE,62,1.0,1.0,52,0.00,,,0.00,Wunderground v.1.15,2013-05-17 20:52:00,
2013-05-17 16:53:00,84.5,64.9,29.99,ENE,68,1.0,1.0,52,0.00,,,0.00,Wunderground v.1.15,2013-05-17 20:53:00,
2013-05-17 16:55:00,84.3,64.2,29.99,SE,125,0.0,1.0,51,0.00,,,0.00,Wunderground v.1.15,2013-05-17 20:55:00,
2013-05-17 16:56:00,84.2,64.7,29.99,SE,125,0.0,1.0,52,0.00,,,0.00,Wunderground v.1.15,2013-05-17 20:56:00,
2013-05-17 16:58:00,84.2,65.2,29.99,SE,125,0.0,1.0,53,0.00,,,0.00,Wunderground v.1.15,2013-05-17 20:58:00,
2013-05-17 17:00:00,84.0,65.6,29.99,SE,125,0.0,0.0,54,0.00,,,0.00,Wunderground v.1.15,2013-05-17 21:00:00,
2013-05-17 17:01:00,84.0,66.6,29.99,SE,125,0.0,0.0,56,0.00,,,0.00,Wunderground v.1.15,2013-05-17 21:01:00,
2013-05-17 17:02:00,83.9,67.0,29.99,SE,125,0.0,0.0,57,0.00,,,0.00,Wunderground v.1.15,2013-05-17 21:02:00,
2013-05-17 17:03:00,83.9,66.5,29.99,SE,125,0.0,0.0,56,0.00,,,0.00,Wunderground v.1.15,2013-05-17 21:03:00,
2013-05-17 17:06:00,83.7,65.8,29.99,SE,126,0.0,0.0,55,0.00,,,0.00,Wunderground v.1.15,2013-05-17 21:06:00,
2013-05-17 17:07:00,83.6,66.2,29.99,SE,134,0.0,0.0,56,0.00,,,0.00,Wunderground v.1.15,2013-05-17 21:07:00,
2013-05-17 17:08:00,83.5,65.6,29.99,SE,134,0.0,0.0,55,0.00,,,0.00,Wunderground v.1.15,2013-05-17 21:08:00,
2013-05-17 17:11:00,83.3,65.4,29.99,SE,140,0.0,0.0,55,0.00,,,0.00,Wunderground v.1.15,2013-05-17 21:11:00,
2013-05-17 17:12:00,83.2,65.9,29.99,WSW,239,1.0,1.0,56,0.00,,,0.00,Wunderground v.1.15,2013-05-17 21:12:00,
2013-05-17 17:13:00,83.0,66.2,29.99,West,267,1.0,3.0,57,0.00,,,0.00,Wunderground v.1.15,2013-05-17 21:13:00,
2013-05-17 17:14:00,82.9,65.1,29.99,WSW,250,0.0,3.0,55,0.00,,,0.00,Wunderground v.1.15,2013-05-17 21:14:00,
2013-05-17 17:16:00,82.4,65.1,29.99,WSW,240,1.0,3.0,56,0.00,,,0.00,Wunderground v.1.15,2013-05-17 21:16:00,
2013-05-17 17:17:00,82.2,64.4,29.99,SW,232,1.0,3.0,55,0.00,,,0.00,Wunderground v.1.15,2013-05-17 21:17:00,
2013-05-17 17:18:00,81.9,65.2,29.99,WSW,238,1.0,3.0,57,0.00,,,0.00,Wunderground v.1.15,2013-05-17 21:18:00,
2013-05-17 17:19:00,81.9,65.2,29.99,WSW,252,2.0,3.0,57,0.00,,,0.00,Wunderground v.1.15,2013-05-17 21:19:00,
2013-05-17 17:21:00,81.6,64.9,29.99,WSW,239,1.0,1.0,57,0.00,,,0.00,Wunderground v.1.15,2013-05-17 21:21:00,
2013-05-17 17:22:00,81.5,65.3,29.99,WSW,242,0.0,1.0,58,0.00,,,0.00,Wunderground v.1.15,2013-05-17 21:22:00,
2013-05-17 17:24:00,81.3,65.1,29.99,NNW,342,0.0,2.0,58,0.00,,,0.00,Wunderground v.1.15,2013-05-17 21:24:00,
2013-05-17 17:26:00,81.2,66.0,29.99,WNW,294,1.0,2.0,60,0.00,,,0.00,Wunderground v.1.15,2013-05-17 21:26:00,
2013-05-17 17:27:00,81.2,65.5,29.99,NW,305,0.0,2.0,59,0.00,,,0.00,Wunderground v.1.15,2013-05-17 21:27:00,
2013-05-17 17:29:00,81.1,65.4,29.99,WSW,245,0.0,2.0,59,0.00,,,0.00,Wunderground v.1.15,2013-05-17 21:29:00,
2013-05-17 17:31:00,81.0,65.3,29.99,NNW,342,1.0,1.0,59,0.00,,,0.00,Wunderground v.1.15,2013-05-17 21:31:00,
2013-05-17 17:32:00,81.1,66.4,29.99,NNW,345,1.0,1.0,61,0.00,,,0.00,Wunderground v.1.15,2013-05-17 21:32:00,
2013-05-17 17:34:00,81.1,65.4,29.99,West,281,1.0,1.0,59,0.00,,,0.00,Wunderground v.1.15,2013-05-17 21:34:00,
2013-05-17 17:36:00,81.2,66.5,29.99,West,281,1.0,1.0,61,0.00,,,0.00,Wunderground v.1.15,2013-05-17 21:36:00,
2013-05-17 17:37:00,81.3,65.6,29.99,WNW,300,1.0,1.0,59,0.00,,,0.00,Wunderground v.1.15,2013-05-17 21:37:00,
2013-05-17 17:38:00,81.3,65.6,29.99,West,273,2.0,3.0,59,0.00,,,0.00,Wunderground v.1.15,2013-05-17 21:38:00,
2013-05-17 17:39:00,81.3,65.6,29.99,South,179,2.0,3.0,59,0.00,,,0.00,Wunderground v.1.15,2013-05-17 21:39:00,
2013-05-17 17:41:00,81.3,66.6,29.99,SW,226,1.0,2.0,61,0.00,,,0.00,Wunderground v.1.15,2013-05-17 21:41:00,
2013-05-17 17:43:00,81.4,66.7,29.99,WSW,248,0.0,2.0,61,0.00,,,0.00,Wunderground v.1.15,2013-05-17 21:43:00,
2013-05-17 17:44:00,81.4,64.7,29.99,North,352,2.0,2.0,57,0.00,,,0.00,Wunderground v.1.15,2013-05-17 21:44:00,
2013-05-17 17:45:00,81.4,64.7,29.99,NW,318,0.0,2.0,57,0.00,,,0.00,Wunderground v.1.15,2013-05-17 21:45:00,
2013-05-17 17:46:00,81.2,64.0,29.99,WNW,291,1.0,2.0,56,0.00,,,0.00,Wunderground v.1.15,2013-05-17 21:46:00,
2013-05-17 17:48:00,81.1,63.4,29.99,WNW,291,1.0,2.0,55,0.00,,,0.00,Wunderground v.1.15,2013-05-17 21:48:00,
2013-05-17 17:50:00,80.7,64.1,29.99,NE,44,1.0,1.0,57,0.00,,,0.00,Wunderground v.1.15,2013-05-17 21:50:00,
2013-05-17 17:52:00,80.3,64.2,29.99,NW,308,1.0,2.0,58,0.00,,,0.00,Wunderground v.1.15,2013-05-17 21:52:00,
2013-05-17 17:53:00,80.0,63.9,29.99,WNW,298,0.0,2.0,58,0.00,,,0.00,Wunderground v.1.15,2013-05-17 21:53:00,
2013-05-17 17:55:00,79.7,63.6,29.99,WNW,298,0.0,2.0,58,0.00,,,0.00,Wunderground v.1.15,2013-05-17 21:55:00,
2013-05-17 17:57:00,79.5,64.9,29.99,ESE,120,0.0,2.0,61,0.00,,,0.00,Wunderground v.1.15,2013-05-17 21:57:00,
2013-05-17 17:58:00,79.3,64.2,29.99,ESE,120,0.0,2.0,60,0.00,,,0.00,Wunderground v.1.15,2013-05-17 21:58:00,
2013-05-17 18:00:00,79.2,64.1,29.99,ESE,120,0.0,1.0,60,0.00,,,0.00,Wunderground v.1.15,2013-05-17 22:00:00,
2013-05-17 18:01:00,79.2,64.6,29.99,ESE,119,0.0,1.0,61,0.00,,,0.00,Wunderground v.1.15,2013-05-17 22:01:00,
2013-05-17 18:02:00,79.1,64.5,29.99,ESE,120,0.0,1.0,61,0.00,,,0.00,Wunderground v.1.15,2013-05-17 22:02:00,
2013-05-17 18:03:00,79.0,65.3,29.99,ESE,120,0.0,1.0,63,0.00,,,0.00,Wunderground v.1.15,2013-05-17 22:03:00,
2013-05-17 18:05:00,78.9,65.2,29.99,ESE,120,0.0,1.0,63,0.00,,,0.00,Wunderground v.1.15,2013-05-17 22:05:00,
2013-05-17 18:06:00,78.9,65.2,29.99,ESE,120,0.0,1.0,63,0.00,,,0.00,Wunderground v.1.15,2013-05-17 22:06:00,
2013-05-17 18:07:00,78.8,66.0,29.99,ESE,120,0.0,1.0,65,0.00,,,0.00,Wunderground v.1.15,2013-05-17 22:07:00,
2013-05-17 18:08:00,78.7,65.0,29.99,ESE,120,0.0,1.0,63,0.00,,,0.00,Wunderground v.1.15,2013-05-17 22:08:00,
2013-05-17 18:09:00,78.7,65.0,29.99,ESE,120,0.0,1.0,63,0.00,,,0.00,Wunderground v.1.15,2013-05-17 22:09:00,
2013-05-17 18:11:00,78.6,64.9,29.99,ESE,120,0.0,0.0,63,0.00,,,0.00,Wunderground v.1.15,2013-05-17 22:11:00,
2013-05-17 18:12:00,78.5,65.3,29.99,ESE,120,0.0,0.0,64,0.00,,,0.00,Wunderground v.1.15,2013-05-17 22:12:00,
2013-05-17 18:13:00,78.4,65.7,29.99,ESE,120,0.0,0.0,65,0.00,,,0.00,Wunderground v.1.15,2013-05-17 22:13:00,
2013-05-17 18:14:00,78.4,65.7,29.99,ESE,120,0.0,0.0,65,0.00,,,0.00,Wunderground v.1.15,2013-05-17 22:14:00,
2013-05-17 18:16:00,78.4,66.1,29.99,SE,125,0.0,0.0,66,0.00,,,0.00,Wunderground v.1.15,2013-05-17 22:16:00,
2013-05-17 18:17:00,78.4,66.1,29.99,SE,125,0.0,0.0,66,0.00,,,0.00,Wunderground v.1.15,2013-05-17 22:17:00,
2013-05-17 18:19:00,78.5,65.8,29.99,SW,228,1.0,1.0,65,0.00,,,0.00,Wunderground v.1.15,2013-05-17 22:19:00,
2013-05-17 18:21:00,78.6,65.8,29.99,SW,217,0.0,1.0,65,0.00,,,0.00,Wunderground v.1.15,2013-05-17 22:21:00,
2013-05-17 18:22:00,78.6,65.8,29.99,WSW,246,3.0,4.0,65,0.00,,,0.00,Wunderground v.1.15,2013-05-17 22:22:00,
2013-05-17 18:23:00,78.7,65.0,29.99,WSW,246,2.0,5.0,63,0.00,,,0.00,Wunderground v.1.15,2013-05-17 22:23:00,
2013-05-17 18:24:00,78.8,65.1,29.99,SW,225,0.0,5.0,63,0.00,,,0.00,Wunderground v.1.15,2013-05-17 22:24:00,
2013-05-17 18:26:00,79.0,64.9,29.99,SW,232,3.0,5.0,62,0.00,,,0.00,Wunderground v.1.15,2013-05-17 22:26:00,
2013-05-17 18:27:00,79.0,64.9,29.99,SW,218,3.0,5.0,62,0.00,,,0.00,Wunderground v.1.15,2013-05-17 22:27:00,
2013-05-17 18:28:00,79.2,65.1,29.99,West,266,3.0,5.0,62,0.00,,,0.00,Wunderground v.1.15,2013-05-17 22:28:00,
2013-05-17 18:29:00,79.3,65.1,30.00,West,259,2.0,5.0,62,0.00,,,0.00,Wunderground v.1.15,2013-05-17 22:29:00,
2013-05-17 18:31:00,79.6,65.4,29.99,SW,226,2.0,3.0,62,0.00,,,0.00,Wunderground v.1.15,2013-05-17 22:31:00,
2013-05-17 18:32:00,79.6,65.0,29.99,WSW,253,1.0,3.0,61,0.00,,,0.00,Wunderground v.1.15,2013-05-17 22:32:00,
2013-05-17 18:33:00,79.7,65.1,29.99,SW,218,2.0,3.0,61,0.00,,,0.00,Wunderground v.1.15,2013-05-17 22:33:00,
2013-05-17 18:34:00,79.8,65.6,29.99,SW,218,1.0,3.0,62,0.00,,,0.00,Wunderground v.1.15,2013-05-17 22:34:00,
2013-05-17 18:35:00,79.8,65.2,29.99,SW,232,2.0,3.0,61,0.00,,,0.00,Wunderground v.1.15,2013-05-17 22:35:00,
2013-05-17 18:37:00,80.0,65.3,29.99,WSW,238,1.0,3.0,61,0.00,,,0.00,Wunderground v.1.15,2013-05-17 22:37:00,
2013-05-17 18:39:00,80.1,64.5,29.99,SW,215,3.0,5.0,59,0.00,,,0.00,Wunderground v.1.15,2013-05-17 22:39:00,
2013-05-17 18:40:00,80.1,64.5,29.99,SW,229,1.0,2.0,59,0.00,,,0.00,Wunderground v.1.15,2013-05-17 22:40:00,
2013-05-17 18:42:00,80.2,65.1,29.99,SW,233,2.0,2.0,60,0.00,,,0.00,Wunderground v.1.15,2013-05-17 22:42:00,
2013-05-17 18:44:00,80.2,64.6,29.99,SW,219,3.0,3.0,59,0.00,,,0.00,Wunderground v.1.15,2013-05-17 22:44:00,
2013-05-17 18:45:00,80.2,64.6,29.99,SW,218,0.0,3.0,59,0.00,,,0.00,Wunderground v.1.15,2013-05-17 22:45:00,
2013-05-17 18:47:00,80.2,64.6,29.99,SW,229,1.0,3.0,59,0.00,,,0.00,Wunderground v.1.15,2013-05-17 22:47:00,
2013-05-17 18:49:00,80.2,64.1,29.99,SW,235,1.0,4.0,58,0.00,,,0.00,Wunderground v.1.15,2013-05-17 22:49:00,
2013-05-17 18:50:00,80.2,64.6,29.99,SW,235,0.0,1.0,59,0.00,,,0.00,Wunderground v.1.15,2013-05-17 22:50:00,
2013-05-17 18:52:00,80.2,65.1,29.99,SW,235,0.0,1.0,60,0.00,,,0.00,Wunderground v.1.15,2013-05-17 22:52:00,
2013-05-17 18:53:00,80.2,65.1,29.99,SW,235,0.0,1.0,60,0.00,,,0.00,Wunderground v.1.15,2013-05-17 22:53:00,
2013-05-17 18:54:00,80.1,65.0,29.99,SW,235,0.0,1.0,60,0.00,,,0.00,Wunderground v.1.15,2013-05-17 22:54:00,
2013-05-17 18:55:00,80.1,65.0,29.99,SW,228,0.0,2.0,60,0.00,,,0.00,Wunderground v.1.15,2013-05-17 22:55:00,
2013-05-17 18:58:00,80.0,64.9,29.99,SW,228,0.0,2.0,60,0.00,,,0.00,Wunderground v.1.15,2013-05-17 22:58:00,
2013-05-17 18:59:00,79.9,64.8,29.99,WSW,246,2.0,2.0,60,0.00,,,0.00,Wunderground v.1.15,2013-05-17 22:59:00,
2013-05-17 19:01:00,79.9,64.8,29.99,WSW,246,1.0,1.0,60,0.00,,,0.00,Wunderground v.1.15,2013-05-17 23:01:00,
2013-05-17 19:03:00,79.8,64.7,29.99,WSW,243,2.0,3.0,60,0.00,,,0.00,Wunderground v.1.15,2013-05-17 23:03:00,
2013-05-17 19:04:00,79.7,64.1,29.99,SSW,211,0.0,4.0,59,0.00,,,0.00,Wunderground v.1.15,2013-05-17 23:04:00,
2013-05-17 19:06:00,79.7,64.1,30.00,SSW,211,1.0,4.0,59,0.00,,,0.00,Wunderground v.1.15,2013-05-17 23:06:00,
2013-05-17 19:08:00,79.6,64.5,30.00,SSW,211,0.0,4.0,60,0.00,,,0.00,Wunderground v.1.15,2013-05-17 23:08:00,
2013-05-17 19:10:00,79.5,64.4,30.00,WSW,253,2.0,3.0,60,0.00,,,0.00,Wunderground v.1.15,2013-05-17 23:10:00,
2013-05-17 19:11:00,79.4,63.8,30.00,SSW,212,1.0,3.0,59,0.00,,,0.00,Wunderground v.1.15,2013-05-17 23:11:00,
2013-05-17 19:13:00,79.3,64.2,30.00,WSW,248,0.0,3.0,60,0.00,,,0.00,Wunderground v.1.15,2013-05-17 23:13:00,
2013-05-17 19:15:00,79.2,64.1,30.00,WSW,249,0.0,3.0,60,0.00,,,0.00,Wunderground v.1.15,2013-05-17 23:15:00,
2013-05-17 19:16:00,79.1,64.0,30.00,WSW,249,0.0,3.0,60,0.00,,,0.00,Wunderground v.1.15,2013-05-17 23:16:00,
2013-05-17 19:18:00,79.1,64.0,30.00,WSW,249,0.0,3.0,60,0.00,,,0.00,Wunderground v.1.15,2013-05-17 23:18:00,
2013-05-17 19:20:00,78.9,64.3,30.00,WSW,249,0.0,0.0,61,0.00,,,0.00,Wunderground v.1.15,2013-05-17 23:20:00,
2013-05-17 19:21:00,78.9,64.3,30.00,WSW,249,0.0,0.0,61,0.00,,,0.00,Wunderground v.1.15,2013-05-17 23:21:00,
2013-05-17 19:22:00,78.8,64.2,30.00,WSW,249,0.0,0.0,61,0.00,,,0.00,Wunderground v.1.15,2013-05-17 23:22:00,
2013-05-17 19:23:00,78.7,64.6,30.00,WSW,250,0.0,0.0,62,0.00,,,0.00,Wunderground v.1.15,2013-05-17 23:23:00,
2013-05-17 19:24:00,78.7,64.6,30.00,WSW,249,0.0,0.0,62,0.00,,,0.00,Wunderground v.1.15,2013-05-17 23:24:00,
2013-05-17 19:26:00,78.5,65.3,30.00,WSW,249,0.0,0.0,64,0.00,,,0.00,Wunderground v.1.15,2013-05-17 23:26:00,
2013-05-17 19:27:00,78.3,65.6,30.00,WSW,249,0.0,0.0,65,0.00,,,0.00,Wunderground v.1.15,2013-05-17 23:27:00,
2013-05-17 19:29:00,78.1,65.4,30.00,WSW,249,0.0,0.0,65,0.00,,,0.00,Wunderground v.1.15,2013-05-17 23:29:00,
2013-05-17 19:31:00,77.9,65.2,30.00,WSW,249,0.0,0.0,65,0.00,,,0.00,Wunderground v.1.15,2013-05-17 23:31:00,
2013-05-17 19:32:00,77.8,65.1,30.00,WSW,249,0.0,0.0,65,0.00,,,0.00,Wunderground v.1.15,2013-05-17 23:32:00,
2013-05-17 19:33:00,77.7,65.0,30.00,WSW,249,0.0,0.0,65,0.00,,,0.00,Wunderground v.1.15,2013-05-17 23:33:00,
2013-05-17 19:34:00,77.6,64.9,30.00,WSW,249,0.0,0.0,65,0.00,,,0.00,Wunderground v.1.15,2013-05-17 23:34:00,
2013-05-17 19:36:00,77.4,65.1,30.00,WSW,249,0.0,0.0,66,0.00,,,0.00,Wunderground v.1.15,2013-05-17 23:36:00,
2013-05-17 19:37:00,77.3,65.1,30.00,WSW,249,0.0,0.0,66,0.00,,,0.00,Wunderground v.1.15,2013-05-17 23:37:00,
2013-05-17 19:38:00,77.2,65.0,30.01,WSW,249,0.0,0.0,66,0.00,,,0.00,Wunderground v.1.15,2013-05-17 23:38:00,
2013-05-17 19:39:00,77.1,64.9,30.01,WSW,249,0.0,0.0,66,0.00,,,0.00,Wunderground v.1.15,2013-05-17 23:39:00,
2013-05-17 19:41:00,76.7,64.5,30.01,WSW,249,0.0,0.0,66,0.00,,,0.00,Wunderground v.1.15,2013-05-17 23:41:00,
2013-05-17 19:42:00,76.6,64.8,30.01,WSW,249,0.0,0.0,67,0.00,,,0.00,Wunderground v.1.15,2013-05-17 23:42:00,
2013-05-17 19:43:00,76.5,64.7,30.01,WSW,249,0.0,0.0,67,0.00,,,0.00,Wunderground v.1.15,2013-05-17 23:43:00,
2013-05-17 19:44:00,76.4,64.6,30.01,WSW,249,0.0,0.0,67,0.00,,,0.00,Wunderground v.1.15,2013-05-17 23:44:00,
2013-05-17 19:46:00,76.2,64.9,30.00,WSW,249,0.0,0.0,68,0.00,,,0.00,Wunderground v.1.15,2013-05-17 23:46:00,
2013-05-17 19:48:00,76.0,64.7,30.00,WSW,249,0.0,0.0,68,0.00,,,0.00,Wunderground v.1.15,2013-05-17 23:48:00,
2013-05-17 19:49:00,75.9,64.6,30.00,WSW,248,0.0,0.0,68,0.00,,,0.00,Wunderground v.1.15,2013-05-17 23:49:00,
2013-05-17 19:52:00,75.6,64.7,30.00,WSW,248,0.0,0.0,69,0.00,,,0.00,Wunderground v.1.15,2013-05-17 23:52:00,
2013-05-17 19:53:00,75.4,64.9,30.00,WSW,249,0.0,0.0,70,0.00,,,0.00,Wunderground v.1.15,2013-05-17 23:53:00,
2013-05-17 19:54:00,75.4,64.9,30.00,WSW,249,0.0,0.0,70,0.00,,,0.00,Wunderground v.1.15,2013-05-17 23:54:00,
2013-05-17 19:55:00,75.3,64.8,30.00,WSW,248,0.0,0.0,70,0.00,,,0.00,Wunderground v.1.15,2013-05-17 23:55:00,
2013-05-17 19:57:00,75.1,64.6,30.00,WSW,249,0.0,0.0,70,0.00,,,0.00,Wunderground v.1.15,2013-05-17 23:57:00,
2013-05-17 19:59:00,74.9,64.9,30.00,WSW,249,0.0,0.0,71,0.00,,,0.00,Wunderground v.1.15,2013-05-17 23:59:00,
2013-05-17 20:01:00,74.7,64.7,30.00,WSW,249,0.0,0.0,71,0.00,,,0.00,Wunderground v.1.15,2013-05-18 00:01:00,
2013-05-17 20:02:00,74.5,64.5,30.00,WSW,249,0.0,0.0,71,0.00,,,0.00,Wunderground v.1.15,2013-05-18 00:02:00,
2013-05-17 20:04:00,74.3,64.3,30.00,WSW,249,0.0,0.0,71,0.00,,,0.00,Wunderground v.1.15,2013-05-18 00:04:00,
2013-05-17 20:06:00,74.1,64.1,30.00,WSW,249,0.0,0.0,71,0.00,,,0.00,Wunderground v.1.15,2013-05-18 00:06:00,
2013-05-17 20:07:00,74.0,64.0,30.00,WSW,249,0.0,0.0,71,0.00,,,0.00,Wunderground v.1.15,2013-05-18 00:07:00,
2013-05-17 20:09:00,73.8,64.2,30.00,WSW,249,0.0,0.0,72,0.00,,,0.00,Wunderground v.1.15,2013-05-18 00:09:00,
2013-05-17 20:11:00,73.6,64.0,30.00,WSW,249,0.0,0.0,72,0.00,,,0.00,Wunderground v.1.15,2013-05-18 00:11:00,
2013-05-17 20:12:00,73.5,63.9,30.00,WSW,249,0.0,0.0,72,0.00,,,0.00,Wunderground v.1.15,2013-05-18 00:12:00,
2013-05-17 20:14:00,73.3,63.7,30.01,WSW,249,0.0,0.0,72,0.00,,,0.00,Wunderground v.1.15,2013-05-18 00:14:00,
2013-05-17 20:16:00,73.2,64.0,30.01,WSW,249,0.0,0.0,73,0.00,,,0.00,Wunderground v.1.15,2013-05-18 00:16:00,
2013-05-17 20:18:00,73.0,63.8,30.01,WSW,248,0.0,0.0,73,0.00,,,0.00,Wunderground v.1.15,2013-05-18 00:18:00,
2013-05-17 20:20:00,72.9,63.7,30.01,WSW,249,0.0,0.0,73,0.00,,,0.00,Wunderground v.1.15,2013-05-18 00:20:00,
2013-05-17 20:21:00,72.7,63.5,30.01,WSW,248,0.0,0.0,73,0.00,,,0.00,Wunderground v.1.15,2013-05-18 00:21:00,
2013-05-17 20:23:00,72.6,63.4,30.01,WSW,249,0.0,0.0,73,0.00,,,0.00,Wunderground v.1.15,2013-05-18 00:23:00,
2013-05-17 20:25:00,72.5,63.4,30.01,WSW,249,0.0,0.0,73,0.00,,,0.00,Wunderground v.1.15,2013-05-18 00:25:00,
2013-05-17 20:27:00,72.3,63.5,30.01,WSW,249,0.0,0.0,74,0.00,,,0.00,Wunderground v.1.15,2013-05-18 00:27:00,
2013-05-17 20:28:00,72.3,63.9,30.01,WSW,248,0.0,0.0,75,0.00,,,0.00,Wunderground v.1.15,2013-05-18 00:28:00,
2013-05-17 20:30:00,72.1,63.7,30.01,WSW,248,0.0,0.0,75,0.00,,,0.00,Wunderground v.1.15,2013-05-18 00:30:00,
2013-05-17 20:32:00,72.0,64.0,30.01,WSW,249,0.0,0.0,76,0.00,,,0.00,Wunderground v.1.15,2013-05-18 00:32:00,
2013-05-17 20:33:00,72.0,64.0,30.01,WSW,249,0.0,0.0,76,0.00,,,0.00,Wunderground v.1.15,2013-05-18 00:33:00,
2013-05-17 20:35:00,71.9,63.9,30.01,WSW,249,0.0,0.0,76,0.00,,,0.00,Wunderground v.1.15,2013-05-18 00:35:00,
2013-05-17 20:36:00,71.9,63.9,30.01,WSW,249,0.0,0.0,76,0.00,,,0.00,Wunderground v.1.15,2013-05-18 00:36:00,
2013-05-17 20:37:00,71.8,63.8,30.01,WSW,248,0.0,0.0,76,0.00,,,0.00,Wunderground v.1.15,2013-05-18 00:37:00,
2013-05-17 20:39:00,71.8,63.8,30.02,WSW,248,0.0,0.0,76,0.00,,,0.00,Wunderground v.1.15,2013-05-18 00:39:00,
2013-05-17 20:40:00,71.7,63.7,30.02,WSW,249,0.0,0.0,76,0.00,,,0.00,Wunderground v.1.15,2013-05-18 00:40:00,
2013-05-17 20:41:00,71.6,63.6,30.01,WSW,248,0.0,0.0,76,0.00,,,0.00,Wunderground v.1.15,2013-05-18 00:41:00,
2013-05-17 20:42:00,71.6,63.6,30.02,WSW,249,0.0,0.0,76,0.00,,,0.00,Wunderground v.1.15,2013-05-18 00:42:00,
2013-05-17 20:44:00,71.5,63.5,30.01,WSW,248,0.0,0.0,76,0.00,,,0.00,Wunderground v.1.15,2013-05-18 00:44:00,
2013-05-17 20:45:00,71.3,63.3,30.02,WSW,248,0.0,0.0,76,0.00,,,0.00,Wunderground v.1.15,2013-05-18 00:45:00,
2013-05-17 20:47:00,71.3,63.3,30.02,WSW,248,0.0,0.0,76,0.00,,,0.00,Wunderground v.1.15,2013-05-18 00:47:00,
2013-05-17 20:49:00,71.1,63.1,30.02,WSW,249,0.0,0.0,76,0.00,,,0.00,Wunderground v.1.15,2013-05-18 00:49:00,
2013-05-17 20:50:00,71.0,63.1,30.02,WSW,249,0.0,0.0,76,0.00,,,0.00,Wunderground v.1.15,2013-05-18 00:50:00,
2013-05-17 20:52:00,70.9,63.3,30.02,WSW,249,0.0,0.0,77,0.00,,,0.00,Wunderground v.1.15,2013-05-18 00:52:00,
2013-05-17 20:54:00,70.8,63.2,30.02,WSW,248,0.0,0.0,77,0.00,,,0.00,Wunderground v.1.15,2013-05-18 00:54:00,
2013-05-17 20:55:00,70.7,63.1,30.02,WSW,248,0.0,0.0,77,0.00,,,0.00,Wunderground v.1.15,2013-05-18 00:55:00,
2013-05-17 20:56:00,70.7,63.5,30.02,WSW,248,0.0,0.0,78,0.00,,,0.00,Wunderground v.1.15,2013-05-18 00:56:00,
2013-05-17 20:57:00,70.6,63.4,30.02,WSW,248,0.0,0.0,78,0.00,,,0.00,Wunderground v.1.15,2013-05-18 00:57:00,
2013-05-17 20:59:00,70.6,63.8,30.02,WSW,249,0.0,0.0,79,0.00,,,0.00,Wunderground v.1.15,2013-05-18 00:59:00,
2013-05-17 21:01:00,70.5,63.7,30.02,WSW,248,0.0,0.0,79,0.00,,,0.00,Wunderground v.1.15,2013-05-18 01:01:00,
2013-05-17 21:02:00,70.4,63.6,30.02,WSW,249,0.0,0.0,79,0.00,,,0.00,Wunderground v.1.15,2013-05-18 01:02:00,
2013-05-17 21:05:00,70.3,63.5,30.02,WSW,248,0.0,0.0,79,0.00,,,0.00,Wunderground v.1.15,2013-05-18 01:05:00,
2013-05-17 21:06:00,70.2,63.4,30.02,WSW,249,0.0,0.0,79,0.00,,,0.00,Wunderground v.1.15,2013-05-18 01:06:00,
2013-05-17 21:07:00,70.2,63.4,30.02,WSW,249,0.0,0.0,79,0.00,,,0.00,Wunderground v.1.15,2013-05-18 01:07:00,
2013-05-17 21:10:00,70.0,63.2,30.03,WSW,248,0.0,0.0,79,0.00,,,0.00,Wunderground v.1.15,2013-05-18 01:10:00,
2013-05-17 21:11:00,70.0,63.2,30.03,WSW,249,0.0,0.0,79,0.00,,,0.00,Wunderground v.1.15,2013-05-18 01:11:00,
2013-05-17 21:12:00,69.9,63.1,30.03,WSW,249,0.0,0.0,79,0.00,,,0.00,Wunderground v.1.15,2013-05-18 01:12:00,
2013-05-17 21:16:00,69.7,63.3,30.03,WSW,249,0.0,0.0,80,0.00,,,0.00,Wunderground v.1.15,2013-05-18 01:16:00,
2013-05-17 21:17:00,69.6,63.2,30.03,WSW,249,0.0,0.0,80,0.00,,,0.00,Wunderground v.1.15,2013-05-18 01:17:00,
2013-05-17 21:18:00,69.6,63.2,30.03,WSW,248,0.0,0.0,80,0.00,,,0.00,Wunderground v.1.15,2013-05-18 01:18:00,
2013-05-17 21:21:00,69.4,63.7,30.03,WSW,248,0.0,0.0,82,0.00,,,0.00,Wunderground v.1.15,2013-05-18 01:21:00,
2013-05-17 21:22:00,69.3,63.6,30.03,WSW,248,0.0,0.0,82,0.00,,,0.00,Wunderground v.1.15,2013-05-18 01:22:00,
2013-05-17 21:23:00,69.3,63.6,30.03,WSW,249,0.0,0.0,82,0.00,,,0.00,Wunderground v.1.15,2013-05-18 01:23:00,
2013-05-17 21:26:00,69.2,63.5,30.03,WSW,249,0.0,0.0,82,0.00,,,0.00,Wunderground v.1.15,2013-05-18 01:26:00,
2013-05-17 21:28:00,69.0,63.3,30.03,WSW,249,0.0,0.0,82,0.00,,,0.00,Wunderground v.1.15,2013-05-18 01:28:00,
2013-05-17 21:31:00,68.8,63.1,30.03,WSW,249,0.0,0.0,82,0.00,,,0.00,Wunderground v.1.15,2013-05-18 01:31:00,
2013-05-17 21:32:00,68.8,63.1,30.03,WSW,248,0.0,0.0,82,0.00,,,0.00,Wunderground v.1.15,2013-05-18 01:32:00,
2013-05-17 21:33:00,68.6,62.9,30.03,WSW,248,0.0,0.0,82,0.00,,,0.00,Wunderground v.1.15,2013-05-18 01:33:00,
2013-05-17 21:34:00,68.6,62.9,30.03,WSW,248,0.0,0.0,82,0.00,,,0.00,Wunderground v.1.15,2013-05-18 01:34:00,
2013-05-17 21:36:00,68.4,62.7,30.03,WSW,248,0.0,0.0,82,0.00,,,0.00,Wunderground v.1.15,2013-05-18 01:36:00,
2013-05-17 21:37:00,68.4,62.7,30.03,WSW,248,0.0,0.0,82,0.00,,,0.00,Wunderground v.1.15,2013-05-18 01:37:00,
2013-05-17 21:38:00,68.3,62.6,30.03,WSW,248,0.0,0.0,82,0.00,,,0.00,Wunderground v.1.15,2013-05-18 01:38:00,
2013-05-17 21:39:00,68.3,62.6,30.03,WSW,249,0.0,0.0,82,0.00,,,0.00,Wunderground v.1.15,2013-05-18 01:39:00,
2013-05-17 21:41:00,68.1,62.7,30.03,WSW,248,0.0,0.0,83,0.00,,,0.00,Wunderground v.1.15,2013-05-18 01:41:00,
2013-05-17 21:42:00,68.1,62.7,30.03,WSW,248,0.0,0.0,83,0.00,,,0.00,Wunderground v.1.15,2013-05-18 01:42:00,
2013-05-17 21:43:00,68.0,62.6,30.04,WSW,248,0.0,0.0,83,0.00,,,0.00,Wunderground v.1.15,2013-05-18 01:43:00,
2013-05-17 21:44:00,67.9,62.5,30.04,WSW,248,0.0,0.0,83,0.00,,,0.00,Wunderground v.1.15,2013-05-18 01:44:00,
2013-05-17 21:46:00,67.8,63.1,30.04,WSW,249,0.0,0.0,85,0.00,,,0.00,Wunderground v.1.15,2013-05-18 01:46:00,
2013-05-17 21:47:00,67.8,63.1,30.04,WSW,249,0.0,0.0,85,0.00,,,0.00,Wunderground v.1.15,2013-05-18 01:47:00,
2013-05-17 21:49:00,67.8,63.5,30.04,WSW,248,0.0,0.0,86,0.00,,,0.00,Wunderground v.1.15,2013-05-18 01:49:00,
2013-05-17 21:51:00,67.8,63.5,30.04,WSW,248,0.0,0.0,86,0.00,,,0.00,Wunderground v.1.15,2013-05-18 01:51:00,
2013-05-17 21:52:00,67.8,63.5,30.04,WSW,249,0.0,0.0,86,0.00,,,0.00,Wunderground v.1.15,2013-05-18 01:52:00,
2013-05-17 21:54:00,67.7,63.4,30.04,WSW,248,0.0,0.0,86,0.00,,,0.00,Wunderground v.1.15,2013-05-18 01:54:00,
2013-05-17 21:56:00,67.6,63.3,30.04,WSW,248,0.0,0.0,86,0.00,,,0.00,Wunderground v.1.15,2013-05-18 01:56:00,
2013-05-17 21:57:00,67.6,63.3,30.04,WSW,248,0.0,0.0,86,0.00,,,0.00,Wunderground v.1.15,2013-05-18 01:57:00,
2013-05-17 21:58:00,67.6,63.3,30.04,WSW,248,0.0,0.0,86,0.00,,,0.00,Wunderground v.1.15,2013-05-18 01:58:00,
2013-05-17 21:59:00,67.5,63.5,30.04,WSW,248,0.0,0.0,87,0.00,,,0.00,Wunderground v.1.15,2013-05-18 01:59:00,
2013-05-17 22:01:00,67.5,63.5,30.04,WSW,248,0.0,0.0,87,0.00,,,0.00,Wunderground v.1.15,2013-05-18 02:01:00,
2013-05-17 22:02:00,67.4,63.4,30.04,WSW,248,0.0,0.0,87,0.00,,,0.00,Wunderground v.1.15,2013-05-18 02:02:00,
2013-05-17 22:03:00,67.4,63.4,30.04,WSW,248,0.0,0.0,87,0.00,,,0.00,Wunderground v.1.15,2013-05-18 02:03:00,
2013-05-17 22:04:00,67.4,63.7,30.04,WSW,248,0.0,0.0,88,0.00,,,0.00,Wunderground v.1.15,2013-05-18 02:04:00,
2013-05-17 22:05:00,67.4,63.7,30.04,WSW,249,0.0,0.0,88,0.00,,,0.00,Wunderground v.1.15,2013-05-18 02:05:00,
2013-05-17 22:06:00,67.3,63.6,30.04,WSW,248,0.0,0.0,88,0.00,,,0.00,Wunderground v.1.15,2013-05-18 02:06:00,
2013-05-17 22:07:00,67.3,63.6,30.04,WSW,248,0.0,0.0,88,0.00,,,0.00,Wunderground v.1.15,2013-05-18 02:07:00,
2013-05-17 22:08:00,67.3,63.6,30.04,WSW,247,0.0,0.0,88,0.00,,,0.00,Wunderground v.1.15,2013-05-18 02:08:00,
2013-05-17 22:09:00,67.3,63.6,30.04,WSW,248,0.0,0.0,88,0.00,,,0.00,Wunderground v.1.15,2013-05-18 02:09:00,
2013-05-17 22:10:00,67.2,63.5,30.04,WSW,248,0.0,0.0,88,0.00,,,0.00,Wunderground v.1.15,2013-05-18 02:10:00,
2013-05-17 22:11:00,67.2,63.5,30.04,WSW,248,0.0,0.0,88,0.00,,,0.00,Wunderground v.1.15,2013-05-18 02:11:00,
2013-05-17 22:12:00,67.2,63.5,30.04,WSW,248,0.0,0.0,88,0.00,,,0.00,Wunderground v.1.15,2013-05-18 02:12:00,
2013-05-17 22:13:00,67.2,63.5,30.04,WSW,249,0.0,0.0,88,0.00,,,0.00,Wunderground v.1.15,2013-05-18 02:13:00,
2013-05-17 22:14:00,67.2,63.5,30.04,WSW,248,0.0,0.0,88,0.00,,,0.00,Wunderground v.1.15,2013-05-18 02:14:00,
2013-05-17 22:15:00,67.2,63.5,30.04,WSW,248,0.0,0.0,88,0.00,,,0.00,Wunderground v.1.15,2013-05-18 02:15:00,
2013-05-17 22:17:00,67.2,63.8,30.04,WSW,248,0.0,0.0,89,0.00,,,0.00,Wunderground v.1.15,2013-05-18 02:17:00,
2013-05-17 22:19:00,67.3,63.9,30.04,WSW,249,0.0,0.0,89,0.00,,,0.00,Wunderground v.1.15,2013-05-18 02:19:00,
2013-05-17 22:20:00,67.3,63.9,30.04,WSW,249,0.0,0.0,89,0.00,,,0.00,Wunderground v.1.15,2013-05-18 02:20:00,
2013-05-17 22:22:00,67.4,64.0,30.04,WSW,249,0.0,0.0,89,0.00,,,0.00,Wunderground v.1.15,2013-05-18 02:22:00,
2013-05-17 22:24:00,67.4,64.0,30.04,WSW,248,0.0,0.0,89,0.00,,,0.00,Wunderground v.1.15,2013-05-18 02:24:00,
2013-05-17 22:25:00,67.5,64.1,30.04,WSW,249,0.0,0.0,89,0.00,,,0.00,Wunderground v.1.15,2013-05-18 02:25:00,
2013-05-17 22:27:00,67.6,64.2,30.05,WSW,248,0.0,0.0,89,0.00,,,0.00,Wunderground v.1.15,2013-05-18 02:27:00,
2013-05-17 22:28:00,67.6,64.2,30.05,WSW,249,0.0,0.0,89,0.00,,,0.00,Wunderground v.1.15,2013-05-18 02:28:00,
2013-05-17 22:29:00,67.6,64.2,30.04,WSW,249,0.0,0.0,89,0.00,,,0.00,Wunderground v.1.15,2013-05-18 02:29:00,
2013-05-17 22:30:00,67.6,64.2,30.05,WSW,248,0.0,0.0,89,0.00,,,0.00,Wunderground v.1.15,2013-05-18 02:30:00,
2013-05-17 22:31:00,67.6,64.2,30.05,WSW,249,0.0,0.0,89,0.00,,,0.00,Wunderground v.1.15,2013-05-18 02:31:00,
2013-05-17 22:33:00,67.6,64.2,30.05,WSW,248,0.0,0.0,89,0.00,,,0.00,Wunderground v.1.15,2013-05-18 02:33:00,
2013-05-17 22:34:00,67.6,64.2,30.05,WSW,247,0.0,0.0,89,0.00,,,0.00,Wunderground v.1.15,2013-05-18 02:34:00,
2013-05-17 22:35:00,67.6,64.2,30.05,WSW,247,0.0,0.0,89,0.00,,,0.00,Wunderground v.1.15,2013-05-18 02:35:00,
2013-05-17 22:36:00,67.6,64.2,30.05,WSW,248,0.0,0.0,89,0.00,,,0.00,Wunderground v.1.15,2013-05-18 02:36:00,
2013-05-17 22:38:00,67.5,64.1,30.05,WSW,247,0.0,0.0,89,0.00,,,0.00,Wunderground v.1.15,2013-05-18 02:38:00,
2013-05-17 22:39:00,67.5,64.1,30.05,WSW,249,0.0,0.0,89,0.00,,,0.00,Wunderground v.1.15,2013-05-18 02:39:00,
2013-05-17 22:40:00,67.4,64.0,30.05,WSW,248,0.0,0.0,89,0.00,,,0.00,Wunderground v.1.15,2013-05-18 02:40:00,
2013-05-17 22:41:00,67.4,64.0,30.05,WSW,249,0.0,0.0,89,0.00,,,0.00,Wunderground v.1.15,2013-05-18 02:41:00,
2013-05-17 22:43:00,67.3,63.9,30.05,WSW,248,0.0,0.0,89,0.00,,,0.00,Wunderground v.1.15,2013-05-18 02:43:00,
2013-05-17 22:44:00,67.3,63.9,30.05,WSW,248,0.0,0.0,89,0.00,,,0.00,Wunderground v.1.15,2013-05-18 02:44:00,
2013-05-17 22:45:00,67.2,63.8,30.05,WSW,248,0.0,0.0,89,0.00,,,0.00,Wunderground v.1.15,2013-05-18 02:45:00,
2013-05-17 22:46:00,67.2,63.8,30.05,WSW,248,0.0,0.0,89,0.00,,,0.00,Wunderground v.1.15,2013-05-18 02:46:00,
2013-05-17 22:47:00,67.1,63.7,30.05,WSW,248,0.0,0.0,89,0.00,,,0.00,Wunderground v.1.15,2013-05-18 02:47:00,
2013-05-17 22:48:00,67.1,63.7,30.05,WSW,248,0.0,0.0,89,0.00,,,0.00,Wunderground v.1.15,2013-05-18 02:48:00,
2013-05-17 22:49:00,67.0,64.0,30.05,WSW,248,0.0,0.0,90,0.00,,,0.00,Wunderground v.1.15,2013-05-18 02:49:00,
2013-05-17 22:50:00,67.0,64.0,30.05,WSW,247,0.0,0.0,90,0.00,,,0.00,Wunderground v.1.15,2013-05-18 02:50:00,
2013-05-17 22:51:00,67.0,64.0,30.05,WSW,248,0.0,0.0,90,0.00,,,0.00,Wunderground v.1.15,2013-05-18 02:51:00,
2013-05-17 22:52:00,66.9,63.9,30.05,WSW,249,0.0,0.0,90,0.00,,,0.00,Wunderground v.1.15,2013-05-18 02:52:00,
2013-05-17 22:53:00,66.8,63.8,30.05,WSW,249,0.0,0.0,90,0.00,,,0.00,Wunderground v.1.15,2013-05-18 02:53:00,
2013-05-17 22:55:00,66.8,63.8,30.05,WSW,248,0.0,0.0,90,0.00,,,0.00,Wunderground v.1.15,2013-05-18 02:55:00,
2013-05-17 22:56:00,66.7,63.7,30.05,WSW,249,0.0,0.0,90,0.00,,,0.00,Wunderground v.1.15,2013-05-18 02:56:00,
2013-05-17 22:57:00,66.7,63.7,30.05,WSW,248,0.0,0.0,90,0.00,,,0.00,Wunderground v.1.15,2013-05-18 02:57:00,
2013-05-17 22:59:00,66.5,63.5,30.05,WSW,249,0.0,0.0,90,0.00,,,0.00,Wunderground v.1.15,2013-05-18 02:59:00,
2013-05-17 23:00:00,66.4,63.4,30.05,WSW,248,0.0,0.0,90,0.00,,,0.00,Wunderground v.1.15,2013-05-18 03:00:00,
2013-05-17 23:02:00,66.3,63.3,30.05,WSW,248,0.0,0.0,90,0.00,,,0.00,Wunderground v.1.15,2013-05-18 03:02:00,
2013-05-17 23:04:00,66.2,63.2,30.05,WSW,248,0.0,0.0,90,0.00,,,0.00,Wunderground v.1.15,2013-05-18 03:04:00,
2013-05-17 23:05:00,66.1,63.1,30.05,WSW,247,0.0,0.0,90,0.00,,,0.00,Wunderground v.1.15,2013-05-18 03:05:00,
2013-05-17 23:07:00,66.0,63.0,30.05,WSW,248,0.0,0.0,90,0.00,,,0.00,Wunderground v.1.15,2013-05-18 03:07:00,
2013-05-17 23:08:00,66.0,63.0,30.05,WSW,248,0.0,0.0,90,0.00,,,0.00,Wunderground v.1.15,2013-05-18 03:08:00,
2013-05-17 23:09:00,65.8,62.8,30.05,WSW,248,0.0,0.0,90,0.00,,,0.00,Wunderground v.1.15,2013-05-18 03:09:00,
2013-05-17 23:10:00,65.8,63.1,30.05,WSW,248,0.0,0.0,91,0.00,,,0.00,Wunderground v.1.15,2013-05-18 03:10:00,
2013-05-17 23:12:00,65.7,63.0,30.05,WSW,248,0.0,0.0,91,0.00,,,0.00,Wunderground v.1.15,2013-05-18 03:12:00,
2013-05-17 23:13:00,65.7,63.0,30.05,WSW,248,0.0,0.0,91,0.00,,,0.00,Wunderground v.1.15,2013-05-18 03:13:00,
2013-05-17 23:15:00,65.5,62.8,30.05,WSW,247,0.0,0.0,91,0.00,,,0.00,Wunderground v.1.15,2013-05-18 03:15:00,
2013-05-17 23:16:00,65.5,62.8,30.05,WSW,248,0.0,0.0,91,0.00,,,0.00,Wunderground v.1.15,2013-05-18 03:16:00,
2013-05-17 23:17:00,65.4,62.7,30.05,WSW,248,0.0,0.0,91,0.00,,,0.00,Wunderground v.1.15,2013-05-18 03:17:00,
2013-05-17 23:18:00,65.4,62.7,30.05,WSW,249,0.0,0.0,91,0.00,,,0.00,Wunderground v.1.15,2013-05-18 03:18:00,
2013-05-17 23:20:00,65.3,62.6,30.05,WSW,248,0.0,0.0,91,0.00,,,0.00,Wunderground v.1.15,2013-05-18 03:20:00,
2013-05-17 23:21:00,65.2,62.5,30.05,WSW,248,0.0,0.0,91,0.00,,,0.00,Wunderground v.1.15,2013-05-18 03:21:00,
2013-05-17 23:22:00,65.2,62.5,30.05,WSW,249,0.0,0.0,91,0.00,,,0.00,Wunderground v.1.15,2013-05-18 03:22:00,
2013-05-17 23:23:00,65.1,62.4,30.05,WSW,248,0.0,0.0,91,0.00,,,0.00,Wunderground v.1.15,2013-05-18 03:23:00,
2013-05-17 23:25:00,65.0,62.3,30.05,WSW,248,0.0,0.0,91,0.00,,,0.00,Wunderground v.1.15,2013-05-18 03:25:00,
2013-05-17 23:27:00,64.9,62.2,30.05,WSW,249,0.0,0.0,91,0.00,,,0.00,Wunderground v.1.15,2013-05-18 03:27:00,
2013-05-17 23:28:00,64.9,62.5,30.05,WSW,248,0.0,0.0,92,0.00,,,0.00,Wunderground v.1.15,2013-05-18 03:28:00,
2013-05-17 23:30:00,64.8,62.4,30.06,WSW,248,0.0,0.0,92,0.00,,,0.00,Wunderground v.1.15,2013-05-18 03:30:00,
2013-05-17 23:32:00,64.7,62.3,30.06,WSW,248,0.0,0.0,92,0.00,,,0.00,Wunderground v.1.15,2013-05-18 03:32:00,
2013-05-17 23:33:00,64.7,62.3,30.06,WSW,248,0.0,0.0,92,0.00,,,0.00,Wunderground v.1.15,2013-05-18 03:33:00,
2013-05-17 23:35:00,64.6,62.2,30.06,WSW,249,0.0,0.0,92,0.00,,,0.00,Wunderground v.1.15,2013-05-18 03:35:00,
2013-05-17 23:37:00,64.6,62.8,30.06,WSW,248,0.0,0.0,94,0.00,,,0.00,Wunderground v.1.15,2013-05-18 03:37:00,
2013-05-17 23:38:00,64.8,63.0,30.06,NE,44,2.0,3.0,94,0.00,,,0.00,Wunderground v.1.15,2013-05-18 03:38:00,
2013-05-17 23:40:00,65.0,63.2,30.06,WSW,243,2.0,2.0,94,0.00,,,0.00,Wunderground v.1.15,2013-05-18 03:40:00,
2013-05-17 23:42:00,64.9,62.8,30.06,WSW,242,0.0,2.0,93,0.00,,,0.00,Wunderground v.1.15,2013-05-18 03:42:00,
2013-05-17 23:43:00,64.9,62.8,30.06,WSW,242,0.0,2.0,93,0.00,,,0.00,Wunderground v.1.15,2013-05-18 03:43:00,
2013-05-17 23:44:00,64.9,62.8,30.06,WSW,240,0.0,2.0,93,0.00,,,0.00,Wunderground v.1.15,2013-05-18 03:44:00,
2013-05-17 23:45:00,64.9,62.8,30.06,WSW,241,0.0,2.0,93,0.00,,,0.00,Wunderground v.1.15,2013-05-18 03:45:00,
2013-05-17 23:47:00,64.9,62.8,30.06,WSW,241,0.0,2.0,93,0.00,,,0.00,Wunderground v.1.15,2013-05-18 03:47:00,
2013-05-17 23:48:00,64.9,62.8,30.06,WSW,242,0.0,2.0,93,0.00,,,0.00,Wunderground v.1.15,2013-05-18 03:48:00,
2013-05-17 23:49:00,64.9,62.8,30.06,WSW,242,0.0,2.0,93,0.00,,,0.00,Wunderground v.1.15,2013-05-18 03:49:00,
2013-05-17 23:51:00,64.9,62.8,30.06,WSW,241,0.0,0.0,93,0.00,,,0.00,Wunderground v.1.15,2013-05-18 03:51:00,
2013-05-17 23:52:00,64.8,62.7,30.06,WSW,240,0.0,0.0,93,0.00,,,0.00,Wunderground v.1.15,2013-05-18 03:52:00,
2013-05-17 23:53:00,64.8,62.7,30.06,WSW,240,0.0,0.0,93,0.00,,,0.00,Wunderground v.1.15,2013-05-18 03:53:00,
2013-05-17 23:54:00,64.8,62.7,30.06,WSW,242,0.0,0.0,93,0.00,,,0.00,Wunderground v.1.15,2013-05-18 03:54:00,
2013-05-17 23:57:00,64.9,63.1,30.06,WSW,241,0.0,0.0,94,0.00,,,0.00,Wunderground v.1.15,2013-05-18 03:57:00,
2013-05-17 23:58:00,64.9,63.1,30.06,WSW,240,0.0,0.0,94,0.00,,,0.00,Wunderground v.1.15,2013-05-18 03:58:00,
2013-05-17 23:59:00,64.9,63.1,30.06,WSW,241,0.0,0.0,94,0.00,,,0.00,Wunderground v.1.15,2013-05-18 03:59:00,